GFSNGP_prec_precacc_090.txt.gz
Total_Precipitation_Accumulation
0.37 0.14 0.48 0.51 0.39 0.55 1.16 0.83 0.96 0.32 0.16 0.04 0.04 0.05 0.02 0.01 0.03 0.06 0.04 0.01 0.01 0.00 0.01 0.00 0.01 0.02 0.02 0.04 0.06 0.11 0.11 0.09 0.07 0.03 0.04 0.05 0.05 0.05 0.05 0.04 0.05 0.05 0.06 0.07
0.79 0.35 0.34 0.60 0.56 0.70 0.69 0.59 0.70 0.28 0.23 0.04 0.01 0.01 0.02 0.11 0.15 0.08 0.05 0.02 0.00 0.00 0.00 0.01 0.01 0.00 0.00 0.03 0.06 0.07 0.08 0.06 0.03 0.04 0.04 0.04 0.11 0.22 0.13 0.18 0.17 0.21 0.32 0.25
0.64 0.43 0.56 0.98 0.75 0.59 0.37 0.35 0.44 0.39 0.11 0.04 0.07 0.06 0.17 0.16 0.09 0.10 0.06 0.01 0.00 0.00 0.00 0.00 0.00 0.00 0.01 0.03 0.02 0.03 0.06 0.06 0.04 0.05 0.08 0.03 0.06 0.14 0.34 0.41 0.35 0.43 0.67 0.83
0.68 0.56 0.86 0.59 0.51 0.35 0.36 0.36 0.32 0.16 0.04 0.04 0.08 0.11 0.26 0.06 0.07 0.05 0.02 0.00 0.00 0.00 0.00 0.00 0.00 0.00 0.01 0.12 0.06 0.33 0.14 0.29 0.37 0.34 0.30 0.25 0.27 0.38 0.36 0.36 0.34 0.41 0.56 0.82
0.40 0.22 0.19 0.02 0.05 0.17 0.23 0.33 0.18 0.05 0.02 0.04 0.03 0.15 0.30 0.06 0.04 0.03 0.01 0.00 0.00 0.00 0.00 0.00 0.00 0.00 0.01 0.00 0.01 0.06 0.21 0.40 0.28 0.42 0.30 0.33 0.60 0.68 0.92 1.15 1.01 0.73 0.54 0.43
0.38 0.24 0.03 0.00 0.00 0.00 0.03 0.19 0.25 0.16 0.09 0.06 0.04 0.12 0.33 0.28 0.18 0.08 0.00 0.00 0.00 0.00 0.00 0.01 0.01 0.03 0.02 0.04 0.05 0.08 0.16 0.29 0.34 0.46 0.70 0.71 0.87 0.74 0.55 0.57 0.62 0.50 0.32 0.19
0.34 0.33 0.02 0.00 0.00 0.00 0.03 0.11 0.11 0.15 0.16 0.07 0.05 0.09 0.38 0.51 0.38 0.19 0.08 0.06 0.06 0.06 0.07 0.10 0.18 0.19 0.16 0.29 0.38 0.45 0.58 0.88 0.67 0.67 0.84 0.73 0.59 0.50 0.32 0.18 0.13 0.09 0.05 0.02
0.21 0.26 0.04 0.00 0.00 0.01 0.01 0.00 0.00 0.05 0.12 0.14 0.11 0.04 0.08 0.23 0.25 0.26 0.25 0.28 0.31 0.23 0.34 0.46 0.74 0.62 0.51 0.60 0.67 0.67 0.50 0.43 0.43 0.32 0.24 0.18 0.08 0.04 0.01 0.00 0.00 0.00 0.00 0.00
0.05 0.04 0.00 0.00 0.00 0.00 0.00 0.00 0.00 0.00 0.08 0.14 0.19 0.11 0.05 0.06 0.07 0.04 0.04 0.13 0.18 0.25 0.41 0.42 0.51 0.38 0.39 0.25 0.25 0.25 0.14 0.10 0.08 0.05 0.01 0.00 0.00 0.00 0.00 0.00 0.00 0.00 0.00 0.00
0.00 0.01 0.00 0.00 0.00 0.00 0.00 0.00 0.00 0.00 0.00 0.00 0.06 0.10 0.00 0.00 0.01 0.02 0.02 0.02 0.01 0.01 0.01 0.04 0.03 0.03 0.03 0.02 0.03 0.03 0.01 0.00 0.00 0.00 0.00 0.00 0.00 0.00 0.00 0.00 0.00 0.00 0.00 0.00
0.00 0.00 0.00 0.00 0.00 0.00 0.00 0.00 0.00 0.00 0.00 0.00 0.00 0.00 0.00 0.00 0.00 0.00 0.00 0.00 0.00 0.00 0.00 0.01 0.00 0.00 0.00 0.00 0.00 0.00 0.00 0.00 0.00 0.00 0.00 0.00 0.00 0.00 0.00 0.00 0.00 0.00 0.00 0.01
0.01 0.01 0.00 0.00 0.00 0.00 0.00 0.00 0.00 0.00 0.00 0.00 0.00 0.00 0.00 0.00 0.00 0.00 0.00 0.00 0.01 0.01 0.01 0.02 0.02 0.01 0.00 0.00 0.00 0.00 0.00 0.00 0.00 0.00 0.00 0.00 0.00 0.00 0.00 0.00 0.00 0.00 0.00 0.01
0.00 0.00 0.00 0.00 0.00 0.00 0.00 0.00 0.00 0.00 0.00 0.00 0.00 0.00 0.00 0.00 0.01 0.00 0.00 0.00 0.00 0.00 0.00 0.01 0.04 0.08 0.09 0.07 0.05 0.02 0.02 0.03 0.03 0.04 0.03 0.02 0.01 0.00 0.00 0.00 0.00 0.00 0.00 0.00
0.00 0.00 0.00 0.00 0.00 0.00 0.00 0.00 0.00 0.00 0.01 0.00 0.00 0.00 0.00 0.03 0.07 0.03 0.00 0.00 0.00 0.00 0.00 0.00 0.00 0.00 0.01 0.02 0.04 0.05 0.04 0.05 0.04 0.04 0.04 0.04 0.03 0.02 0.01 0.00 0.00 0.00 0.00 0.00
0.00 0.00 0.00 0.00 0.00 0.00 0.00 0.00 0.00 0.01 0.01 0.00 0.00 0.00 0.00 0.01 0.03 0.03 0.00 0.00 0.00 0.00 0.00 0.00 0.00 0.00 0.00 0.00 0.00 0.00 0.00 0.00 0.00 0.00 0.00 0.00 0.00 0.00 0.00 0.00 0.00 0.00 0.00 0.00
0.00 0.00 0.00 0.01 0.00 0.00 0.00 0.00 0.00 0.00 0.00 0.00 0.00 0.00 0.00 0.00 0.00 0.01 0.00 0.00 0.00 0.00 0.00 0.00 0.00 0.00 0.00 0.00 0.00 0.00 0.00 0.01 0.01 0.00 0.01 0.01 0.00 0.00 0.00 0.00 0.00 0.00 0.00 0.00
0.00 0.01 0.01 0.01 0.00 0.00 0.00 0.00 0.00 0.00 0.00 0.00 0.00 0.00 0.00 0.00 0.00 0.00 0.00 0.00 0.00 0.01 0.00 0.00 0.00 0.00 0.00 0.00 0.00 0.00 0.00 0.01 0.05 0.01 0.02 0.02 0.02 0.02 0.02 0.03 0.02 0.01 0.00 0.00
0.00 0.00 0.00 0.00 0.01 0.01 0.00 0.00 0.00 0.00 0.00 0.00 0.00 0.00 0.00 0.00 0.01 0.02 0.01 0.00 0.00 0.00 0.00 0.00 0.01 0.00 0.00 0.00 0.00 0.00 0.00 0.00 0.01 0.01 0.02 0.03 0.04 0.06 0.09 0.08 0.05 0.04 0.02 0.04
0.01 0.03 0.02 0.02 0.05 0.07 0.07 0.05 0.02 0.01 0.01 0.00 0.00 0.00 0.00 0.00 0.01 0.03 0.04 0.03 0.01 0.01 0.00 0.01 0.05 0.04 0.01 0.02 0.03 0.01 0.01 0.00 0.01 0.01 0.01 0.03 0.10 0.10 0.09 0.09 0.09 0.09 0.09 0.11
0.19 0.15 0.10 0.12 0.18 0.21 0.21 0.20 0.13 0.06 0.02 0.00 0.00 0.01 0.01 0.01 0.01 0.02 0.04 0.06 0.06 0.05 0.06 0.06 0.08 0.03 0.02 0.04 0.07 0.01 0.01 0.01 0.02 0.03 0.09 0.14 0.13 0.14 0.14 0.14 0.14 0.11 0.09 0.09
0.22 0.26 0.27 0.29 0.39 0.30 0.22 0.17 0.08 0.04 0.02 0.01 0.01 0.01 0.01 0.01 0.01 0.01 0.02 0.03 0.04 0.05 0.07 0.07 0.08 0.07 0.09 0.14 0.16 0.06 0.05 0.07 0.12 0.18 0.26 0.32 0.31 0.28 0.22 0.17 0.18 0.18 0.16 0.15
0.07 0.10 0.14 0.18 0.21 0.19 0.10 0.10 0.11 0.11 0.06 0.04 0.02 0.03 0.04 0.03 0.02 0.01 0.02 0.02 0.02 0.07 0.04 0.06 0.09 0.14 0.18 0.27 0.23 0.19 0.22 0.29 0.32 0.34 0.34 0.34 0.33 0.28 0.25 0.23 0.22 0.19 0.21 0.19
0.12 0.05 0.02 0.01 0.00 0.02 0.07 0.09 0.11 0.15 0.14 0.11 0.07 0.05 0.04 0.04 0.04 0.04 0.05 0.04 0.04 0.06 0.06 0.07 0.11 0.15 0.16 0.17 0.14 0.21 0.23 0.27 0.28 0.26 0.24 0.25 0.23 0.21 0.19 0.17 0.18 0.20 0.18 0.16
0.21 0.09 0.03 0.01 0.00 0.00 0.00 0.00 0.00 0.01 0.04 0.06 0.05 0.06 0.06 0.07 0.05 0.04 0.03 0.03 0.03 0.02 0.02 0.06 0.10 0.12 0.13 0.12 0.17 0.25 0.25 0.26 0.26 0.23 0.20 0.21 0.18 0.17 0.17 0.15 0.15 0.12 0.11 0.12
0.11 0.05 0.03 0.01 0.00 0.00 0.00 0.00 0.00 0.00 0.00 0.00 0.00 0.00 0.00 0.00 0.00 0.00 0.01 0.00 0.01 0.00 0.00 0.00 0.00 0.01 0.02 0.04 0.08 0.11 0.12 0.12 0.12 0.12 0.10 0.10 0.07 0.08 0.07 0.07 0.08 0.09 0.11 0.08
0.09 0.08 0.06 0.05 0.03 0.01 0.00 0.00 0.00 0.00 0.00 0.00 0.00 0.00 0.00 0.00 0.00 0.00 0.00 0.00 0.00 0.01 0.00 0.00 0.00 0.00 0.00 0.00 0.00 0.00 0.01 0.02 0.06 0.07 0.06 0.06 0.06 0.06 0.06 0.05 0.05 0.06 0.07 0.05
0.00 0.01 0.01 0.01 0.01 0.01 0.00 0.00 0.00 0.00 0.00 0.00 0.00 0.00 0.00 0.00 0.00 0.00 0.00 0.00 0.00 0.00 0.00 0.00 0.00 0.00 0.00 0.00 0.00 0.00 0.01 0.01 0.01 0.03 0.05 0.05 0.05 0.05 0.04 0.04 0.05 0.05 0.05 0.05

GFSNGP_prec_precacc_093.txt.gz
Total_Precipitation_Accumulation
0.40 0.16 0.54 0.53 0.40 0.56 1.21 0.84 0.96 0.32 0.16 0.04 0.04 0.05 0.02 0.01 0.03 0.06 0.04 0.01 0.01 0.00 0.01 0.00 0.01 0.02 0.02 0.04 0.06 0.11 0.11 0.09 0.07 0.03 0.04 0.05 0.05 0.05 0.05 0.04 0.05 0.05 0.06 0.07
0.82 0.36 0.36 0.61 0.57 0.71 0.69 0.59 0.70 0.28 0.23 0.04 0.01 0.01 0.02 0.11 0.15 0.08 0.05 0.02 0.00 0.00 0.00 0.01 0.01 0.00 0.00 0.03 0.06 0.07 0.08 0.06 0.03 0.04 0.04 0.04 0.11 0.22 0.13 0.18 0.17 0.21 0.32 0.25
0.71 0.48 0.66 1.09 0.77 0.59 0.37 0.35 0.44 0.39 0.11 0.04 0.07 0.06 0.17 0.16 0.09 0.10 0.06 0.01 0.00 0.00 0.00 0.00 0.00 0.00 0.01 0.03 0.02 0.03 0.06 0.06 0.04 0.05 0.08 0.03 0.06 0.14 0.34 0.41 0.35 0.43 0.67 0.83
0.75 0.71 0.94 0.60 0.51 0.35 0.36 0.36 0.32 0.16 0.04 0.04 0.08 0.11 0.26 0.06 0.07 0.05 0.02 0.00 0.00 0.00 0.00 0.00 0.00 0.00 0.01 0.12 0.06 0.33 0.14 0.29 0.37 0.34 0.30 0.25 0.27 0.38 0.36 0.36 0.34 0.41 0.56 0.82
0.46 0.36 0.21 0.02 0.05 0.17 0.23 0.33 0.18 0.05 0.02 0.04 0.03 0.15 0.30 0.06 0.04 0.03 0.01 0.00 0.00 0.00 0.00 0.00 0.00 0.00 0.01 0.00 0.01 0.06 0.21 0.40 0.28 0.42 0.30 0.33 0.60 0.68 0.92 1.15 1.01 0.73 0.54 0.43
0.40 0.34 0.08 0.00 0.00 0.00 0.03 0.19 0.25 0.16 0.09 0.06 0.04 0.12 0.33 0.28 0.18 0.08 0.00 0.00 0.00 0.00 0.00 0.01 0.01 0.03 0.02 0.04 0.05 0.08 0.16 0.29 0.34 0.46 0.70 0.71 0.87 0.74 0.55 0.57 0.62 0.50 0.32 0.19
0.35 0.37 0.03 0.00 0.00 0.00 0.03 0.12 0.11 0.15 0.16 0.07 0.05 0.09 0.38 0.51 0.38 0.19 0.08 0.06 0.06 0.06 0.07 0.10 0.18 0.19 0.16 0.29 0.38 0.45 0.58 0.88 0.67 0.67 0.84 0.73 0.59 0.50 0.32 0.18 0.13 0.09 0.05 0.02
0.22 0.27 0.04 0.00 0.00 0.01 0.01 0.00 0.00 0.05 0.13 0.14 0.11 0.04 0.08 0.23 0.25 0.26 0.25 0.28 0.31 0.23 0.34 0.46 0.74 0.62 0.51 0.60 0.67 0.67 0.50 0.43 0.43 0.32 0.24 0.18 0.08 0.04 0.01 0.00 0.00 0.00 0.00 0.00
0.07 0.05 0.01 0.00 0.00 0.00 0.00 0.00 0.00 0.01 0.09 0.15 0.19 0.11 0.05 0.06 0.07 0.04 0.04 0.13 0.18 0.25 0.41 0.42 0.51 0.38 0.39 0.25 0.25 0.25 0.14 0.10 0.08 0.05 0.01 0.00 0.00 0.00 0.00 0.00 0.00 0.00 0.00 0.00
0.00 0.01 0.04 0.11 0.02 0.00 0.00 0.00 0.00 0.00 0.00 0.00 0.06 0.10 0.00 0.00 0.01 0.02 0.02 0.02 0.01 0.01 0.01 0.04 0.03 0.03 0.03 0.02 0.03 0.03 0.01 0.00 0.00 0.00 0.00 0.00 0.00 0.00 0.00 0.00 0.00 0.00 0.00 0.00
0.00 0.00 0.00 0.00 0.00 0.00 0.00 0.00 0.00 0.00 0.00 0.00 0.00 0.00 0.00 0.01 0.00 0.00 0.00 0.00 0.00 0.00 0.00 0.01 0.00 0.00 0.00 0.00 0.00 0.00 0.00 0.00 0.00 0.00 0.00 0.00 0.00 0.00 0.00 0.00 0.00 0.00 0.00 0.01
0.01 0.01 0.00 0.00 0.00 0.00 0.00 0.00 0.00 0.00 0.00 0.00 0.00 0.00 0.00 0.00 0.00 0.00 0.00 0.00 0.01 0.01 0.01 0.02 0.02 0.01 0.00 0.00 0.00 0.00 0.00 0.00 0.00 0.00 0.00 0.00 0.00 0.00 0.00 0.00 0.00 0.00 0.00 0.01
0.00 0.00 0.00 0.00 0.00 0.00 0.00 0.00 0.00 0.00 0.00 0.00 0.00 0.00 0.00 0.00 0.01 0.00 0.00 0.00 0.00 0.00 0.00 0.01 0.04 0.08 0.09 0.07 0.05 0.05 0.06 0.06 0.05 0.04 0.03 0.03 0.01 0.00 0.00 0.00 0.00 0.00 0.00 0.00
0.00 0.00 0.00 0.00 0.00 0.00 0.01 0.01 0.00 0.01 0.01 0.00 0.00 0.01 0.00 0.03 0.08 0.03 0.00 0.00 0.00 0.00 0.00 0.00 0.00 0.00 0.01 0.02 0.04 0.05 0.06 0.08 0.06 0.06 0.05 0.04 0.03 0.02 0.01 0.00 0.00 0.00 0.00 0.00
0.00 0.00 0.00 0.00 0.00 0.00 0.01 0.02 0.00 0.01 0.02 0.00 0.00 0.00 0.00 0.02 0.03 0.03 0.00 0.00 0.00 0.00 0.00 0.00 0.00 0.00 0.00 0.00 0.00 0.00 0.00 0.00 0.00 0.00 0.00 0.01 0.00 0.00 0.00 0.00 0.00 0.00 0.00 0.00
0.00 0.00 0.00 0.01 0.00 0.00 0.01 0.03 0.02 0.00 0.00 0.00 0.00 0.00 0.00 0.00 0.00 0.01 0.00 0.00 0.00 0.00 0.00 0.00 0.00 0.00 0.00 0.00 0.00 0.00 0.00 0.01 0.01 0.00 0.01 0.01 0.01 0.01 0.00 0.00 0.01 0.01 0.01 0.01
0.00 0.01 0.01 0.01 0.00 0.00 0.00 0.00 0.01 0.01 0.00 0.00 0.00 0.00 0.00 0.00 0.00 0.00 0.00 0.00 0.00 0.01 0.00 0.00 0.00 0.00 0.00 0.00 0.00 0.00 0.00 0.01 0.05 0.01 0.02 0.02 0.02 0.02 0.03 0.05 0.04 0.02 0.01 0.02
0.00 0.00 0.00 0.00 0.01 0.01 0.01 0.01 0.01 0.00 0.00 0.00 0.00 0.00 0.00 0.00 0.01 0.02 0.01 0.00 0.00 0.00 0.00 0.00 0.01 0.00 0.00 0.00 0.00 0.00 0.00 0.00 0.01 0.01 0.02 0.03 0.04 0.07 0.11 0.11 0.07 0.05 0.03 0.05
0.01 0.03 0.02 0.03 0.06 0.08 0.08 0.07 0.05 0.04 0.02 0.03 0.02 0.01 0.00 0.00 0.01 0.03 0.04 0.03 0.01 0.01 0.00 0.01 0.05 0.04 0.01 0.02 0.03 0.01 0.01 0.00 0.01 0.01 0.01 0.04 0.11 0.11 0.11 0.11 0.10 0.09 0.10 0.12
0.19 0.15 0.10 0.12 0.19 0.23 0.22 0.24 0.24 0.23 0.19 0.10 0.03 0.01 0.01 0.01 0.01 0.02 0.04 0.06 0.06 0.05 0.06 0.06 0.08 0.03 0.02 0.04 0.07 0.01 0.01 0.01 0.02 0.03 0.10 0.16 0.16 0.17 0.17 0.17 0.16 0.13 0.11 0.10
0.22 0.26 0.27 0.29 0.39 0.34 0.27 0.21 0.12 0.07 0.03 0.02 0.01 0.01 0.01 0.01 0.01 0.01 0.02 0.03 0.04 0.05 0.07 0.07 0.08 0.07 0.09 0.14 0.16 0.06 0.06 0.07 0.12 0.18 0.26 0.33 0.33 0.30 0.24 0.20 0.21 0.20 0.18 0.18
0.07 0.10 0.14 0.18 0.21 0.19 0.11 0.11 0.11 0.11 0.06 0.04 0.02 0.03 0.04 0.03 0.02 0.01 0.02 0.02 0.02 0.07 0.04 0.06 0.09 0.14 0.18 0.27 0.23 0.19 0.22 0.29 0.32 0.34 0.34 0.34 0.34 0.29 0.26 0.24 0.24 0.22 0.23 0.22
0.12 0.05 0.02 0.01 0.00 0.02 0.07 0.09 0.11 0.15 0.14 0.11 0.07 0.05 0.04 0.04 0.04 0.04 0.05 0.04 0.04 0.06 0.06 0.07 0.11 0.15 0.16 0.17 0.14 0.21 0.23 0.27 0.28 0.26 0.24 0.25 0.23 0.21 0.19 0.17 0.18 0.21 0.20 0.17
0.21 0.09 0.03 0.01 0.00 0.00 0.00 0.00 0.00 0.01 0.04 0.06 0.05 0.06 0.06 0.07 0.05 0.04 0.03 0.03 0.03 0.02 0.02 0.06 0.10 0.12 0.13 0.12 0.17 0.25 0.25 0.26 0.26 0.23 0.20 0.21 0.18 0.17 0.17 0.15 0.15 0.12 0.11 0.13
0.12 0.06 0.03 0.02 0.01 0.00 0.00 0.00 0.00 0.00 0.00 0.00 0.00 0.00 0.00 0.00 0.00 0.00 0.01 0.00 0.01 0.00 0.00 0.00 0.00 0.01 0.02 0.04 0.08 0.11 0.12 0.12 0.12 0.12 0.10 0.10 0.07 0.08 0.07 0.07 0.08 0.09 0.11 0.08
0.09 0.08 0.06 0.05 0.03 0.02 0.02 0.01 0.00 0.00 0.00 0.00 0.00 0.00 0.00 0.00 0.00 0.00 0.00 0.00 0.00 0.01 0.00 0.00 0.00 0.00 0.00 0.00 0.00 0.00 0.01 0.02 0.06 0.07 0.06 0.06 0.06 0.06 0.06 0.05 0.05 0.06 0.07 0.05
0.00 0.01 0.01 0.01 0.01 0.01 0.00 0.00 0.00 0.00 0.00 0.00 0.00 0.00 0.00 0.00 0.00 0.00 0.00 0.00 0.00 0.00 0.00 0.00 0.00 0.00 0.00 0.00 0.00 0.00 0.01 0.01 0.01 0.03 0.05 0.05 0.05 0.05 0.04 0.04 0.05 0.05 0.05 0.05

GFSNGP_prec_precacc_099.txt.gz
Total_Precipitation_Accumulation
0.43 0.17 0.67 0.68 0.51 0.75 1.43 0.87 0.98 0.32 0.16 0.04 0.04 0.05 0.02 0.01 0.03 0.06 0.04 0.01 0.01 0.00 0.01 0.00 0.01 0.02 0.02 0.04 0.06 0.11 0.11 0.09 0.07 0.03 0.04 0.05 0.05 0.05 0.05 0.04 0.05 0.05 0.06 0.07
0.83 0.36 0.36 0.62 0.61 0.81 0.83 0.73 0.77 0.29 0.23 0.04 0.01 0.01 0.02 0.11 0.15 0.08 0.05 0.02 0.00 0.00 0.00 0.01 0.01 0.00 0.00 0.03 0.06 0.07 0.08 0.06 0.03 0.04 0.04 0.04 0.11 0.22 0.13 0.18 0.17 0.21 0.32 0.25
0.71 0.48 0.69 1.12 0.77 0.59 0.37 0.37 0.48 0.43 0.11 0.04 0.09 0.06 0.17 0.16 0.09 0.10 0.06 0.01 0.00 0.00 0.00 0.00 0.00 0.00 0.01 0.03 0.02 0.03 0.06 0.06 0.04 0.05 0.08 0.03 0.06 0.14 0.34 0.41 0.35 0.43 0.67 0.83
0.75 0.73 1.02 0.62 0.51 0.35 0.36 0.36 0.32 0.16 0.04 0.04 0.08 0.11 0.26 0.06 0.07 0.05 0.02 0.00 0.00 0.00 0.00 0.00 0.00 0.00 0.01 0.12 0.06 0.33 0.14 0.29 0.37 0.34 0.30 0.25 0.27 0.38 0.36 0.36 0.34 0.41 0.56 0.82
0.46 0.38 0.25 0.02 0.05 0.17 0.23 0.33 0.18 0.05 0.02 0.04 0.03 0.15 0.30 0.06 0.04 0.03 0.01 0.00 0.00 0.00 0.00 0.00 0.00 0.00 0.01 0.00 0.01 0.06 0.21 0.40 0.28 0.42 0.30 0.33 0.60 0.68 0.92 1.15 1.01 0.73 0.54 0.43
0.40 0.36 0.09 0.00 0.00 0.00 0.03 0.19 0.25 0.16 0.09 0.06 0.04 0.12 0.33 0.28 0.18 0.08 0.00 0.00 0.00 0.00 0.00 0.01 0.01 0.03 0.02 0.04 0.05 0.08 0.16 0.29 0.34 0.46 0.70 0.71 0.87 0.74 0.55 0.57 0.62 0.50 0.32 0.19
0.35 0.37 0.03 0.00 0.00 0.00 0.03 0.12 0.11 0.15 0.16 0.07 0.05 0.09 0.38 0.51 0.38 0.19 0.08 0.06 0.06 0.06 0.07 0.10 0.18 0.19 0.16 0.29 0.38 0.45 0.58 0.88 0.67 0.67 0.84 0.73 0.59 0.50 0.32 0.18 0.13 0.09 0.05 0.02
0.22 0.27 0.04 0.00 0.00 0.01 0.01 0.00 0.00 0.05 0.14 0.14 0.11 0.04 0.08 0.23 0.25 0.26 0.25 0.28 0.31 0.23 0.34 0.46 0.74 0.62 0.51 0.60 0.67 0.67 0.50 0.43 0.43 0.32 0.24 0.18 0.08 0.04 0.01 0.00 0.00 0.00 0.00 0.00
0.08 0.05 0.01 0.01 0.00 0.00 0.00 0.00 0.00 0.01 0.10 0.15 0.19 0.11 0.05 0.06 0.07 0.04 0.04 0.13 0.18 0.25 0.41 0.42 0.51 0.38 0.39 0.25 0.25 0.25 0.14 0.10 0.08 0.05 0.01 0.00 0.00 0.00 0.00 0.00 0.00 0.00 0.00 0.00
0.00 0.01 0.04 0.16 0.17 0.08 0.04 0.01 0.00 0.00 0.00 0.00 0.06 0.10 0.00 0.00 0.01 0.02 0.02 0.02 0.01 0.01 0.01 0.04 0.03 0.03 0.03 0.02 0.03 0.03 0.01 0.00 0.00 0.00 0.00 0.00 0.00 0.00 0.00 0.00 0.00 0.00 0.00 0.00
0.00 0.00 0.00 0.00 0.02 0.05 0.07 0.07 0.05 0.02 0.00 0.00 0.01 0.02 0.01 0.03 0.01 0.00 0.00 0.00 0.00 0.00 0.00 0.01 0.00 0.00 0.00 0.00 0.00 0.00 0.00 0.00 0.00 0.00 0.00 0.00 0.00 0.00 0.00 0.00 0.00 0.00 0.00 0.01
0.01 0.01 0.00 0.00 0.00 0.00 0.00 0.01 0.03 0.03 0.01 0.00 0.01 0.03 0.03 0.02 0.00 0.00 0.00 0.00 0.01 0.01 0.01 0.02 0.02 0.01 0.00 0.00 0.00 0.00 0.00 0.00 0.00 0.00 0.00 0.00 0.00 0.00 0.00 0.01 0.00 0.01 0.00 0.01
0.00 0.00 0.00 0.00 0.00 0.00 0.00 0.00 0.00 0.01 0.02 0.00 0.00 0.01 0.03 0.03 0.03 0.00 0.00 0.00 0.00 0.00 0.00 0.01 0.04 0.08 0.09 0.07 0.05 0.05 0.06 0.06 0.06 0.07 0.06 0.05 0.03 0.01 0.00 0.01 0.01 0.01 0.00 0.01
0.00 0.00 0.01 0.00 0.00 0.00 0.01 0.01 0.01 0.02 0.02 0.01 0.00 0.02 0.03 0.06 0.13 0.03 0.00 0.00 0.00 0.00 0.00 0.00 0.00 0.00 0.01 0.02 0.04 0.05 0.06 0.08 0.06 0.08 0.09 0.09 0.08 0.06 0.05 0.03 0.02 0.01 0.01 0.00
0.00 0.00 0.00 0.00 0.00 0.00 0.01 0.02 0.03 0.04 0.02 0.00 0.00 0.02 0.03 0.07 0.12 0.17 0.03 0.00 0.00 0.00 0.00 0.00 0.00 0.00 0.00 0.00 0.00 0.00 0.00 0.00 0.00 0.00 0.00 0.02 0.01 0.01 0.01 0.01 0.00 0.00 0.01 0.02
0.00 0.00 0.00 0.01 0.00 0.00 0.01 0.04 0.07 0.09 0.03 0.00 0.00 0.00 0.00 0.00 0.00 0.01 0.00 0.00 0.00 0.00 0.00 0.00 0.00 0.00 0.00 0.00 0.00 0.00 0.00 0.01 0.01 0.00 0.01 0.01 0.01 0.01 0.01 0.02 0.02 0.02 0.02 0.02
0.00 0.01 0.01 0.01 0.00 0.00 0.00 0.03 0.06 0.15 0.10 0.02 0.00 0.01 0.01 0.00 0.00 0.00 0.00 0.00 0.00 0.01 0.00 0.00 0.00 0.00 0.00 0.00 0.00 0.00 0.00 0.01 0.05 0.01 0.02 0.02 0.02 0.02 0.03 0.05 0.05 0.03 0.02 0.05
0.00 0.00 0.00 0.00 0.01 0.01 0.02 0.02 0.03 0.07 0.15 0.20 0.13 0.04 0.02 0.02 0.03 0.03 0.01 0.00 0.00 0.00 0.00 0.00 0.01 0.00 0.00 0.00 0.00 0.00 0.00 0.00 0.01 0.01 0.02 0.03 0.04 0.08 0.11 0.12 0.09 0.07 0.04 0.09
0.01 0.03 0.02 0.03 0.07 0.10 0.10 0.09 0.09 0.10 0.10 0.11 0.14 0.12 0.07 0.03 0.02 0.03 0.04 0.03 0.01 0.01 0.00 0.01 0.05 0.04 0.01 0.02 0.03 0.01 0.01 0.00 0.01 0.01 0.01 0.05 0.11 0.11 0.11 0.12 0.11 0.10 0.11 0.13
0.19 0.16 0.10 0.12 0.19 0.24 0.24 0.27 0.27 0.27 0.25 0.21 0.18 0.16 0.13 0.09 0.05 0.04 0.04 0.06 0.06 0.05 0.06 0.06 0.08 0.03 0.02 0.04 0.08 0.01 0.01 0.01 0.02 0.03 0.10 0.16 0.16 0.17 0.18 0.20 0.19 0.14 0.12 0.11
0.23 0.27 0.27 0.29 0.40 0.34 0.28 0.23 0.15 0.10 0.06 0.04 0.05 0.04 0.03 0.02 0.01 0.01 0.02 0.03 0.04 0.05 0.07 0.07 0.08 0.07 0.09 0.14 0.16 0.06 0.06 0.07 0.12 0.18 0.26 0.33 0.33 0.30 0.25 0.20 0.21 0.21 0.19 0.19
0.08 0.10 0.14 0.18 0.22 0.19 0.11 0.11 0.11 0.11 0.07 0.04 0.03 0.03 0.04 0.03 0.02 0.01 0.02 0.02 0.02 0.07 0.04 0.06 0.09 0.14 0.18 0.27 0.23 0.19 0.22 0.29 0.32 0.34 0.34 0.34 0.34 0.29 0.26 0.25 0.25 0.22 0.24 0.22
0.12 0.05 0.02 0.01 0.00 0.02 0.07 0.09 0.11 0.15 0.14 0.11 0.07 0.05 0.04 0.04 0.04 0.04 0.05 0.04 0.04 0.06 0.06 0.07 0.11 0.15 0.16 0.17 0.14 0.21 0.23 0.27 0.28 0.26 0.24 0.25 0.23 0.21 0.19 0.17 0.18 0.21 0.20 0.17
0.21 0.09 0.03 0.01 0.00 0.00 0.00 0.00 0.00 0.02 0.05 0.06 0.06 0.06 0.06 0.07 0.05 0.04 0.03 0.03 0.03 0.02 0.02 0.06 0.10 0.12 0.13 0.12 0.17 0.25 0.25 0.26 0.26 0.23 0.20 0.21 0.18 0.17 0.17 0.15 0.15 0.12 0.11 0.13
0.12 0.06 0.04 0.02 0.02 0.02 0.03 0.03 0.02 0.03 0.02 0.02 0.01 0.01 0.00 0.00 0.00 0.00 0.01 0.00 0.01 0.00 0.00 0.00 0.00 0.01 0.02 0.04 0.08 0.11 0.12 0.12 0.12 0.12 0.10 0.10 0.07 0.08 0.07 0.07 0.08 0.09 0.11 0.08
0.09 0.08 0.06 0.05 0.04 0.03 0.04 0.06 0.06 0.10 0.07 0.04 0.04 0.03 0.01 0.00 0.00 0.00 0.00 0.00 0.00 0.01 0.00 0.00 0.00 0.00 0.00 0.00 0.00 0.00 0.01 0.02 0.06 0.07 0.06 0.06 0.06 0.06 0.06 0.05 0.05 0.06 0.07 0.05
0.00 0.01 0.01 0.01 0.01 0.01 0.00 0.00 0.01 0.01 0.01 0.01 0.02 0.02 0.01 0.00 0.00 0.00 0.00 0.00 0.00 0.00 0.00 0.00 0.00 0.00 0.00 0.00 0.00 0.00 0.01 0.01 0.01 0.03 0.05 0.05 0.05 0.05 0.04 0.04 0.05 0.05 0.05 0.05

GFSNGP_prec_precacc_102.txt.gz
Total_Precipitation_Accumulation
0.43 0.17 0.67 0.68 0.52 0.76 1.50 0.91 0.99 0.32 0.16 0.04 0.04 0.05 0.02 0.01 0.03 0.06 0.04 0.01 0.01 0.00 0.01 0.00 0.01 0.02 0.02 0.04 0.06 0.11 0.11 0.09 0.07 0.03 0.04 0.05 0.05 0.05 0.05 0.04 0.05 0.05 0.06 0.07
0.83 0.36 0.36 0.62 0.61 0.81 0.83 0.77 0.84 0.30 0.23 0.04 0.01 0.01 0.02 0.11 0.15 0.08 0.05 0.02 0.00 0.00 0.00 0.01 0.01 0.00 0.00 0.03 0.06 0.07 0.08 0.06 0.03 0.04 0.04 0.04 0.11 0.22 0.13 0.18 0.17 0.21 0.32 0.25
0.71 0.48 0.69 1.12 0.77 0.59 0.37 0.37 0.49 0.46 0.13 0.07 0.11 0.06 0.17 0.16 0.09 0.10 0.06 0.01 0.00 0.00 0.00 0.00 0.00 0.00 0.01 0.03 0.02 0.03 0.06 0.06 0.04 0.05 0.08 0.03 0.06 0.14 0.34 0.41 0.35 0.43 0.67 0.83
0.75 0.73 1.02 0.62 0.51 0.35 0.36 0.36 0.32 0.16 0.04 0.07 0.12 0.11 0.26 0.06 0.07 0.05 0.02 0.00 0.00 0.00 0.00 0.00 0.00 0.00 0.01 0.12 0.06 0.33 0.14 0.29 0.37 0.34 0.30 0.25 0.27 0.38 0.36 0.36 0.34 0.41 0.56 0.82
0.46 0.38 0.25 0.02 0.05 0.17 0.23 0.35 0.18 0.05 0.02 0.04 0.03 0.15 0.30 0.06 0.04 0.03 0.01 0.00 0.00 0.00 0.00 0.00 0.00 0.00 0.01 0.00 0.01 0.06 0.21 0.40 0.28 0.42 0.30 0.33 0.60 0.68 0.92 1.15 1.01 0.73 0.54 0.43
0.40 0.36 0.09 0.00 0.00 0.00 0.03 0.20 0.26 0.16 0.09 0.06 0.04 0.12 0.33 0.28 0.18 0.08 0.00 0.00 0.00 0.00 0.00 0.01 0.01 0.03 0.02 0.04 0.05 0.08 0.16 0.29 0.34 0.46 0.70 0.71 0.87 0.74 0.55 0.57 0.62 0.50 0.32 0.19
0.35 0.37 0.03 0.00 0.00 0.00 0.03 0.12 0.11 0.16 0.16 0.07 0.05 0.09 0.38 0.51 0.38 0.19 0.08 0.06 0.06 0.06 0.07 0.10 0.18 0.19 0.16 0.29 0.38 0.45 0.58 0.88 0.67 0.67 0.84 0.73 0.59 0.50 0.32 0.18 0.13 0.09 0.05 0.02
0.22 0.27 0.04 0.00 0.00 0.01 0.01 0.00 0.00 0.05 0.14 0.16 0.13 0.04 0.08 0.23 0.25 0.26 0.25 0.28 0.31 0.23 0.34 0.46 0.74 0.62 0.51 0.60 0.67 0.67 0.50 0.43 0.43 0.32 0.24 0.18 0.08 0.04 0.01 0.00 0.00 0.00 0.00 0.00
0.08 0.05 0.01 0.01 0.00 0.00 0.00 0.00 0.00 0.01 0.11 0.16 0.19 0.11 0.05 0.06 0.07 0.04 0.04 0.13 0.18 0.25 0.41 0.42 0.51 0.38 0.39 0.25 0.25 0.25 0.14 0.10 0.08 0.05 0.01 0.00 0.00 0.00 0.00 0.00 0.00 0.00 0.00 0.00
0.00 0.01 0.04 0.16 0.17 0.08 0.04 0.01 0.00 0.00 0.00 0.00 0.06 0.10 0.00 0.00 0.01 0.02 0.02 0.02 0.01 0.01 0.01 0.04 0.03 0.03 0.03 0.02 0.03 0.03 0.01 0.00 0.00 0.00 0.00 0.00 0.00 0.00 0.00 0.00 0.00 0.00 0.00 0.00
0.00 0.00 0.00 0.00 0.02 0.05 0.07 0.07 0.05 0.03 0.01 0.00 0.01 0.02 0.01 0.03 0.01 0.00 0.00 0.00 0.00 0.00 0.00 0.01 0.00 0.00 0.00 0.00 0.00 0.00 0.00 0.00 0.00 0.00 0.00 0.00 0.00 0.00 0.00 0.00 0.00 0.00 0.00 0.01
0.01 0.01 0.00 0.00 0.00 0.00 0.00 0.01 0.03 0.03 0.01 0.01 0.01 0.03 0.03 0.02 0.01 0.01 0.00 0.00 0.01 0.01 0.01 0.02 0.02 0.01 0.00 0.00 0.00 0.00 0.00 0.00 0.00 0.00 0.00 0.00 0.00 0.00 0.00 0.01 0.00 0.01 0.00 0.01
0.00 0.00 0.00 0.00 0.00 0.00 0.00 0.00 0.00 0.01 0.02 0.01 0.00 0.01 0.03 0.03 0.03 0.01 0.00 0.00 0.00 0.00 0.00 0.01 0.04 0.08 0.09 0.07 0.05 0.05 0.06 0.06 0.06 0.07 0.06 0.05 0.03 0.01 0.00 0.01 0.01 0.01 0.01 0.01
0.00 0.00 0.01 0.00 0.00 0.00 0.01 0.01 0.01 0.02 0.02 0.01 0.01 0.02 0.03 0.06 0.15 0.11 0.05 0.00 0.00 0.00 0.00 0.00 0.00 0.00 0.01 0.02 0.04 0.05 0.06 0.08 0.06 0.08 0.09 0.09 0.08 0.06 0.05 0.03 0.03 0.03 0.04 0.03
0.00 0.00 0.00 0.00 0.00 0.00 0.01 0.02 0.03 0.04 0.03 0.01 0.02 0.02 0.03 0.08 0.18 0.31 0.24 0.09 0.01 0.00 0.00 0.00 0.00 0.00 0.00 0.00 0.00 0.00 0.00 0.00 0.00 0.00 0.00 0.02 0.01 0.01 0.01 0.01 0.01 0.01 0.02 0.04
0.00 0.00 0.00 0.01 0.00 0.00 0.01 0.04 0.07 0.09 0.03 0.00 0.00 0.00 0.00 0.00 0.01 0.02 0.02 0.02 0.00 0.00 0.00 0.00 0.00 0.00 0.00 0.00 0.00 0.00 0.00 0.01 0.01 0.00 0.01 0.01 0.01 0.02 0.01 0.02 0.02 0.02 0.02 0.02
0.00 0.01 0.01 0.01 0.00 0.00 0.00 0.03 0.07 0.16 0.11 0.03 0.01 0.01 0.01 0.00 0.00 0.00 0.00 0.00 0.00 0.01 0.00 0.00 0.00 0.00 0.00 0.00 0.00 0.00 0.00 0.01 0.05 0.01 0.02 0.02 0.02 0.03 0.03 0.05 0.05 0.04 0.02 0.07
0.00 0.00 0.00 0.00 0.01 0.01 0.02 0.03 0.03 0.07 0.15 0.20 0.17 0.08 0.04 0.03 0.05 0.07 0.07 0.04 0.01 0.00 0.00 0.00 0.01 0.00 0.00 0.00 0.00 0.00 0.00 0.00 0.01 0.01 0.02 0.03 0.05 0.08 0.12 0.13 0.10 0.08 0.04 0.11
0.01 0.03 0.02 0.03 0.07 0.10 0.10 0.09 0.09 0.10 0.10 0.11 0.16 0.21 0.18 0.12 0.08 0.08 0.09 0.08 0.03 0.01 0.00 0.01 0.05 0.04 0.01 0.02 0.03 0.01 0.01 0.00 0.01 0.01 0.01 0.06 0.12 0.11 0.11 0.13 0.11 0.11 0.11 0.13
0.19 0.16 0.10 0.12 0.19 0.24 0.24 0.27 0.27 0.27 0.25 0.21 0.18 0.17 0.16 0.12 0.09 0.07 0.06 0.07 0.07 0.05 0.06 0.06 0.08 0.03 0.02 0.04 0.08 0.01 0.01 0.01 0.02 0.03 0.10 0.16 0.16 0.17 0.18 0.20 0.19 0.14 0.12 0.11
0.23 0.27 0.27 0.29 0.40 0.34 0.28 0.23 0.15 0.10 0.06 0.04 0.05 0.05 0.03 0.02 0.01 0.01 0.02 0.03 0.04 0.05 0.07 0.07 0.08 0.07 0.09 0.14 0.16 0.06 0.06 0.07 0.12 0.18 0.26 0.33 0.33 0.30 0.25 0.20 0.21 0.21 0.19 0.19
0.08 0.10 0.14 0.18 0.22 0.19 0.11 0.11 0.11 0.11 0.07 0.04 0.03 0.03 0.04 0.03 0.02 0.01 0.02 0.02 0.02 0.07 0.04 0.06 0.09 0.14 0.18 0.27 0.23 0.19 0.22 0.29 0.32 0.34 0.34 0.34 0.34 0.29 0.26 0.25 0.25 0.22 0.24 0.22
0.12 0.05 0.02 0.01 0.00 0.02 0.07 0.09 0.11 0.15 0.14 0.11 0.07 0.05 0.04 0.04 0.04 0.04 0.05 0.04 0.04 0.06 0.06 0.07 0.11 0.15 0.16 0.17 0.14 0.21 0.23 0.27 0.28 0.26 0.24 0.25 0.23 0.21 0.19 0.17 0.18 0.21 0.20 0.17
0.21 0.09 0.03 0.01 0.00 0.00 0.00 0.00 0.00 0.02 0.05 0.06 0.06 0.06 0.06 0.07 0.05 0.04 0.03 0.03 0.03 0.02 0.02 0.06 0.10 0.12 0.13 0.12 0.17 0.25 0.25 0.26 0.26 0.23 0.20 0.21 0.18 0.17 0.17 0.15 0.15 0.12 0.11 0.13
0.12 0.06 0.04 0.02 0.02 0.02 0.03 0.03 0.02 0.03 0.02 0.02 0.01 0.01 0.00 0.00 0.00 0.00 0.01 0.00 0.01 0.00 0.00 0.00 0.00 0.01 0.02 0.04 0.08 0.11 0.12 0.12 0.12 0.12 0.10 0.10 0.07 0.08 0.07 0.07 0.08 0.09 0.11 0.08
0.09 0.08 0.06 0.05 0.04 0.03 0.04 0.06 0.06 0.10 0.07 0.04 0.04 0.05 0.03 0.01 0.00 0.00 0.00 0.00 0.00 0.01 0.01 0.00 0.00 0.00 0.00 0.00 0.00 0.00 0.01 0.02 0.06 0.07 0.06 0.06 0.06 0.06 0.06 0.05 0.05 0.06 0.07 0.05
0.00 0.01 0.01 0.01 0.01 0.01 0.00 0.00 0.01 0.01 0.01 0.01 0.02 0.03 0.02 0.01 0.01 0.01 0.01 0.01 0.00 0.00 0.01 0.00 0.00 0.00 0.00 0.00 0.00 0.00 0.01 0.01 0.01 0.03 0.05 0.05 0.05 0.05 0.04 0.04 0.05 0.05 0.05 0.05

GFSNGP_prec_precacc_108.txt.gz
Total_Precipitation_Accumulation
0.43 0.17 0.67 0.68 0.52 0.76 1.52 0.99 1.09 0.39 0.19 0.04 0.04 0.05 0.02 0.01 0.03 0.06 0.04 0.01 0.01 0.00 0.01 0.00 0.01 0.02 0.02 0.04 0.06 0.11 0.11 0.09 0.07 0.03 0.04 0.05 0.05 0.05 0.05 0.04 0.05 0.05 0.06 0.07
0.83 0.36 0.36 0.62 0.61 0.81 0.83 0.77 0.84 0.30 0.23 0.04 0.01 0.01 0.02 0.11 0.15 0.08 0.05 0.02 0.00 0.00 0.00 0.01 0.01 0.00 0.00 0.03 0.06 0.07 0.08 0.06 0.03 0.04 0.04 0.04 0.11 0.22 0.13 0.18 0.17 0.21 0.32 0.25
0.71 0.48 0.70 1.12 0.77 0.59 0.37 0.37 0.49 0.47 0.13 0.07 0.11 0.06 0.17 0.16 0.09 0.10 0.06 0.01 0.00 0.00 0.00 0.00 0.00 0.00 0.01 0.03 0.02 0.03 0.06 0.06 0.04 0.05 0.08 0.03 0.06 0.14 0.34 0.41 0.35 0.43 0.67 0.83
0.75 0.73 1.02 0.63 0.51 0.35 0.36 0.36 0.32 0.16 0.04 0.07 0.12 0.11 0.26 0.06 0.07 0.05 0.02 0.00 0.00 0.00 0.00 0.00 0.00 0.00 0.01 0.12 0.06 0.33 0.14 0.29 0.37 0.34 0.30 0.25 0.27 0.38 0.36 0.36 0.34 0.41 0.56 0.82
0.46 0.38 0.25 0.02 0.05 0.17 0.23 0.37 0.20 0.06 0.02 0.04 0.03 0.15 0.30 0.06 0.04 0.03 0.01 0.00 0.00 0.00 0.00 0.00 0.00 0.00 0.01 0.00 0.01 0.06 0.21 0.40 0.28 0.42 0.30 0.33 0.60 0.68 0.92 1.15 1.01 0.73 0.54 0.43
0.40 0.36 0.09 0.00 0.00 0.00 0.03 0.21 0.30 0.17 0.09 0.06 0.04 0.13 0.33 0.28 0.18 0.08 0.00 0.00 0.00 0.00 0.00 0.01 0.01 0.03 0.02 0.04 0.05 0.08 0.16 0.29 0.34 0.46 0.70 0.71 0.87 0.74 0.55 0.57 0.62 0.50 0.32 0.19
0.35 0.37 0.03 0.00 0.00 0.00 0.03 0.12 0.11 0.16 0.16 0.07 0.05 0.09 0.38 0.51 0.38 0.19 0.09 0.06 0.06 0.06 0.07 0.10 0.18 0.19 0.16 0.29 0.38 0.45 0.58 0.88 0.67 0.67 0.84 0.73 0.59 0.50 0.32 0.18 0.13 0.09 0.05 0.02
0.22 0.27 0.04 0.00 0.00 0.01 0.01 0.00 0.00 0.05 0.14 0.16 0.14 0.06 0.09 0.23 0.25 0.26 0.26 0.29 0.31 0.23 0.34 0.46 0.74 0.62 0.51 0.60 0.67 0.67 0.50 0.43 0.43 0.32 0.24 0.18 0.08 0.04 0.01 0.00 0.00 0.00 0.00 0.00
0.08 0.05 0.01 0.01 0.00 0.00 0.00 0.00 0.00 0.01 0.11 0.17 0.21 0.12 0.05 0.06 0.07 0.04 0.04 0.13 0.18 0.25 0.41 0.42 0.51 0.38 0.39 0.25 0.25 0.25 0.14 0.10 0.08 0.05 0.01 0.00 0.00 0.00 0.00 0.00 0.00 0.00 0.00 0.00
0.00 0.01 0.04 0.16 0.17 0.08 0.04 0.01 0.00 0.00 0.00 0.00 0.06 0.11 0.01 0.01 0.01 0.02 0.02 0.02 0.01 0.01 0.01 0.04 0.03 0.03 0.03 0.02 0.03 0.03 0.01 0.00 0.00 0.00 0.00 0.00 0.00 0.00 0.00 0.00 0.00 0.00 0.00 0.00
0.00 0.00 0.00 0.00 0.02 0.05 0.07 0.07 0.05 0.03 0.01 0.00 0.01 0.02 0.02 0.03 0.01 0.00 0.00 0.00 0.00 0.00 0.00 0.01 0.00 0.00 0.00 0.00 0.00 0.00 0.00 0.00 0.00 0.00 0.00 0.00 0.00 0.00 0.00 0.00 0.01 0.01 0.01 0.01
0.01 0.01 0.00 0.00 0.00 0.00 0.00 0.01 0.03 0.03 0.01 0.01 0.01 0.05 0.05 0.03 0.01 0.01 0.00 0.00 0.01 0.01 0.01 0.02 0.02 0.01 0.00 0.00 0.00 0.00 0.00 0.00 0.00 0.00 0.00 0.00 0.00 0.00 0.02 0.04 0.05 0.06 0.04 0.04
0.00 0.00 0.00 0.00 0.00 0.00 0.00 0.00 0.00 0.01 0.02 0.01 0.00 0.02 0.04 0.03 0.03 0.01 0.00 0.01 0.02 0.01 0.00 0.01 0.04 0.08 0.09 0.07 0.05 0.06 0.08 0.09 0.08 0.09 0.07 0.06 0.04 0.02 0.01 0.03 0.03 0.03 0.02 0.02
0.00 0.00 0.01 0.00 0.00 0.00 0.01 0.01 0.01 0.02 0.02 0.01 0.01 0.02 0.03 0.06 0.15 0.11 0.08 0.08 0.05 0.01 0.00 0.00 0.00 0.00 0.01 0.02 0.04 0.05 0.07 0.10 0.10 0.12 0.12 0.12 0.12 0.10 0.09 0.07 0.05 0.05 0.07 0.05
0.00 0.00 0.00 0.00 0.00 0.00 0.01 0.02 0.03 0.04 0.03 0.01 0.02 0.02 0.04 0.08 0.19 0.34 0.28 0.20 0.19 0.19 0.14 0.07 0.01 0.00 0.00 0.00 0.00 0.00 0.00 0.00 0.00 0.00 0.01 0.02 0.01 0.02 0.02 0.02 0.02 0.02 0.02 0.06
0.00 0.00 0.00 0.01 0.00 0.00 0.01 0.04 0.07 0.09 0.04 0.02 0.01 0.01 0.01 0.01 0.02 0.05 0.04 0.05 0.08 0.09 0.06 0.03 0.01 0.00 0.00 0.00 0.00 0.00 0.00 0.01 0.01 0.00 0.01 0.01 0.01 0.02 0.02 0.02 0.02 0.03 0.03 0.03
0.00 0.01 0.01 0.01 0.00 0.00 0.00 0.03 0.07 0.16 0.12 0.04 0.02 0.01 0.01 0.01 0.00 0.00 0.02 0.02 0.01 0.01 0.01 0.00 0.00 0.00 0.00 0.00 0.00 0.00 0.00 0.01 0.05 0.01 0.02 0.02 0.02 0.03 0.03 0.06 0.06 0.05 0.03 0.09
0.00 0.00 0.00 0.00 0.01 0.01 0.02 0.03 0.03 0.07 0.15 0.21 0.18 0.08 0.05 0.04 0.06 0.09 0.09 0.08 0.06 0.04 0.02 0.01 0.01 0.00 0.00 0.00 0.00 0.00 0.00 0.00 0.01 0.01 0.02 0.03 0.05 0.08 0.12 0.14 0.12 0.11 0.09 0.16
0.01 0.03 0.02 0.03 0.07 0.10 0.10 0.09 0.09 0.10 0.10 0.11 0.16 0.21 0.18 0.13 0.11 0.11 0.13 0.13 0.11 0.09 0.06 0.05 0.08 0.05 0.01 0.02 0.03 0.01 0.01 0.00 0.01 0.01 0.01 0.06 0.13 0.11 0.12 0.14 0.14 0.13 0.14 0.16
0.19 0.16 0.11 0.13 0.19 0.24 0.24 0.27 0.27 0.27 0.25 0.21 0.18 0.17 0.16 0.12 0.09 0.09 0.09 0.10 0.10 0.08 0.08 0.07 0.08 0.03 0.02 0.04 0.08 0.01 0.01 0.01 0.02 0.03 0.11 0.17 0.16 0.17 0.18 0.21 0.19 0.15 0.13 0.12
0.23 0.27 0.27 0.29 0.40 0.34 0.28 0.23 0.15 0.10 0.06 0.04 0.05 0.05 0.03 0.02 0.01 0.01 0.02 0.03 0.04 0.05 0.07 0.07 0.08 0.07 0.09 0.14 0.16 0.06 0.06 0.07 0.12 0.18 0.26 0.33 0.33 0.30 0.25 0.20 0.21 0.21 0.19 0.19
0.08 0.10 0.14 0.18 0.22 0.19 0.11 0.11 0.11 0.11 0.07 0.04 0.03 0.03 0.04 0.03 0.02 0.01 0.02 0.02 0.02 0.07 0.04 0.06 0.09 0.14 0.18 0.27 0.23 0.19 0.22 0.29 0.32 0.34 0.34 0.34 0.34 0.29 0.26 0.25 0.25 0.22 0.24 0.22
0.12 0.05 0.02 0.01 0.00 0.02 0.07 0.09 0.11 0.15 0.14 0.11 0.07 0.05 0.04 0.04 0.04 0.04 0.05 0.04 0.04 0.06 0.06 0.07 0.11 0.15 0.17 0.18 0.15 0.21 0.23 0.27 0.28 0.26 0.24 0.25 0.23 0.21 0.19 0.17 0.18 0.21 0.20 0.17
0.21 0.09 0.03 0.01 0.00 0.00 0.00 0.00 0.00 0.02 0.05 0.06 0.06 0.06 0.06 0.07 0.05 0.04 0.03 0.03 0.03 0.02 0.02 0.06 0.10 0.12 0.13 0.13 0.17 0.26 0.26 0.26 0.26 0.23 0.20 0.21 0.18 0.17 0.17 0.15 0.15 0.12 0.11 0.13
0.12 0.06 0.04 0.02 0.02 0.02 0.03 0.03 0.02 0.03 0.02 0.02 0.01 0.01 0.01 0.01 0.00 0.00 0.01 0.02 0.02 0.01 0.00 0.00 0.00 0.01 0.02 0.04 0.08 0.11 0.12 0.12 0.12 0.12 0.10 0.10 0.07 0.08 0.07 0.07 0.08 0.09 0.11 0.08
0.09 0.08 0.06 0.05 0.04 0.03 0.04 0.06 0.06 0.10 0.07 0.04 0.04 0.05 0.03 0.01 0.00 0.00 0.01 0.03 0.03 0.05 0.05 0.05 0.03 0.01 0.00 0.00 0.00 0.00 0.01 0.02 0.06 0.07 0.06 0.06 0.06 0.06 0.06 0.05 0.05 0.06 0.07 0.05
0.01 0.01 0.01 0.01 0.01 0.01 0.00 0.00 0.01 0.01 0.01 0.01 0.02 0.03 0.02 0.01 0.01 0.01 0.02 0.02 0.03 0.05 0.10 0.12 0.10 0.07 0.04 0.03 0.01 0.01 0.01 0.01 0.01 0.04 0.06 0.05 0.05 0.05 0.04 0.04 0.05 0.05 0.05 0.05

GFSNGP_prec_precacc_111.txt.gz
Total_Precipitation_Accumulation
0.43 0.17 0.67 0.68 0.52 0.76 1.52 0.99 1.09 0.39 0.20 0.04 0.04 0.05 0.02 0.01 0.03 0.06 0.04 0.01 0.01 0.00 0.01 0.00 0.01 0.02 0.02 0.04 0.06 0.11 0.11 0.09 0.07 0.03 0.04 0.05 0.05 0.05 0.05 0.04 0.05 0.05 0.06 0.07
0.83 0.36 0.36 0.62 0.61 0.81 0.83 0.77 0.84 0.30 0.23 0.04 0.01 0.01 0.02 0.11 0.15 0.08 0.05 0.02 0.00 0.00 0.00 0.01 0.01 0.00 0.00 0.03 0.06 0.07 0.08 0.06 0.03 0.04 0.04 0.04 0.11 0.22 0.13 0.18 0.17 0.21 0.33 0.26
0.71 0.48 0.70 1.12 0.77 0.59 0.38 0.37 0.49 0.47 0.13 0.07 0.11 0.06 0.17 0.16 0.09 0.10 0.06 0.01 0.00 0.00 0.00 0.00 0.00 0.00 0.01 0.03 0.02 0.03 0.06 0.06 0.04 0.05 0.08 0.03 0.06 0.14 0.34 0.41 0.35 0.43 0.67 0.83
0.75 0.73 1.02 0.63 0.51 0.35 0.36 0.36 0.32 0.16 0.04 0.07 0.12 0.11 0.26 0.06 0.07 0.05 0.02 0.00 0.00 0.00 0.00 0.00 0.00 0.00 0.01 0.12 0.06 0.33 0.14 0.29 0.37 0.34 0.30 0.25 0.27 0.38 0.36 0.36 0.34 0.41 0.56 0.82
0.46 0.38 0.25 0.02 0.05 0.17 0.23 0.37 0.20 0.06 0.02 0.04 0.03 0.15 0.30 0.06 0.04 0.03 0.01 0.00 0.00 0.00 0.00 0.00 0.00 0.00 0.01 0.00 0.01 0.06 0.21 0.40 0.28 0.42 0.30 0.33 0.60 0.68 0.92 1.15 1.01 0.73 0.54 0.43
0.40 0.36 0.09 0.00 0.00 0.00 0.03 0.21 0.30 0.17 0.09 0.06 0.04 0.14 0.34 0.28 0.18 0.08 0.00 0.00 0.00 0.00 0.00 0.01 0.01 0.03 0.02 0.04 0.05 0.08 0.16 0.29 0.34 0.46 0.70 0.71 0.87 0.74 0.55 0.57 0.62 0.50 0.32 0.19
0.35 0.37 0.03 0.00 0.00 0.00 0.04 0.12 0.11 0.16 0.16 0.07 0.05 0.09 0.38 0.51 0.38 0.19 0.09 0.06 0.06 0.06 0.07 0.10 0.18 0.19 0.16 0.29 0.38 0.45 0.58 0.88 0.67 0.67 0.84 0.73 0.59 0.50 0.32 0.18 0.13 0.09 0.05 0.02
0.22 0.27 0.04 0.00 0.00 0.01 0.01 0.00 0.00 0.05 0.14 0.16 0.14 0.06 0.09 0.23 0.25 0.26 0.26 0.29 0.32 0.23 0.34 0.46 0.74 0.62 0.51 0.60 0.67 0.67 0.50 0.43 0.43 0.32 0.24 0.18 0.08 0.04 0.01 0.00 0.00 0.00 0.00 0.00
0.08 0.05 0.01 0.01 0.00 0.00 0.00 0.00 0.00 0.01 0.11 0.17 0.21 0.12 0.05 0.06 0.07 0.04 0.04 0.13 0.18 0.25 0.41 0.42 0.51 0.38 0.39 0.25 0.25 0.25 0.14 0.10 0.08 0.05 0.01 0.00 0.00 0.00 0.00 0.00 0.00 0.00 0.00 0.00
0.00 0.01 0.04 0.16 0.17 0.08 0.04 0.01 0.00 0.00 0.00 0.00 0.06 0.11 0.01 0.01 0.01 0.02 0.02 0.02 0.01 0.01 0.01 0.04 0.03 0.03 0.03 0.02 0.03 0.03 0.01 0.00 0.00 0.00 0.00 0.00 0.00 0.00 0.00 0.00 0.00 0.00 0.00 0.00
0.00 0.00 0.00 0.00 0.02 0.05 0.07 0.07 0.05 0.03 0.01 0.00 0.01 0.02 0.02 0.03 0.01 0.00 0.00 0.00 0.00 0.00 0.00 0.01 0.00 0.00 0.00 0.00 0.00 0.00 0.00 0.00 0.00 0.00 0.00 0.00 0.00 0.00 0.00 0.00 0.01 0.01 0.01 0.01
0.01 0.01 0.00 0.00 0.00 0.00 0.00 0.01 0.03 0.03 0.01 0.01 0.01 0.05 0.05 0.03 0.01 0.01 0.00 0.00 0.01 0.01 0.01 0.02 0.02 0.01 0.00 0.00 0.00 0.00 0.00 0.00 0.00 0.00 0.00 0.00 0.00 0.00 0.02 0.05 0.07 0.08 0.07 0.06
0.00 0.00 0.00 0.00 0.00 0.00 0.00 0.00 0.00 0.01 0.02 0.01 0.00 0.02 0.04 0.03 0.03 0.01 0.00 0.01 0.02 0.01 0.00 0.01 0.04 0.08 0.09 0.07 0.05 0.06 0.08 0.10 0.10 0.11 0.08 0.06 0.04 0.02 0.01 0.04 0.07 0.08 0.08 0.09
0.00 0.00 0.01 0.00 0.00 0.00 0.01 0.01 0.01 0.02 0.02 0.01 0.01 0.02 0.03 0.06 0.15 0.11 0.08 0.08 0.05 0.01 0.00 0.00 0.00 0.00 0.01 0.02 0.04 0.05 0.07 0.11 0.12 0.15 0.15 0.15 0.15 0.12 0.10 0.07 0.06 0.08 0.11 0.08
0.00 0.00 0.00 0.00 0.00 0.00 0.01 0.02 0.03 0.04 0.03 0.01 0.02 0.02 0.04 0.08 0.19 0.34 0.28 0.21 0.19 0.19 0.14 0.08 0.04 0.01 0.01 0.00 0.00 0.00 0.00 0.00 0.00 0.00 0.01 0.03 0.03 0.04 0.05 0.07 0.07 0.06 0.07 0.11
0.00 0.00 0.00 0.01 0.00 0.00 0.01 0.04 0.07 0.09 0.04 0.02 0.01 0.01 0.01 0.01 0.02 0.05 0.04 0.06 0.08 0.09 0.06 0.04 0.04 0.04 0.03 0.01 0.00 0.00 0.00 0.01 0.01 0.00 0.01 0.01 0.01 0.02 0.02 0.03 0.04 0.05 0.07 0.07
0.00 0.01 0.01 0.01 0.00 0.00 0.00 0.03 0.07 0.16 0.12 0.04 0.02 0.01 0.01 0.01 0.00 0.00 0.02 0.02 0.01 0.02 0.01 0.00 0.00 0.01 0.00 0.00 0.00 0.00 0.00 0.01 0.05 0.01 0.02 0.02 0.02 0.03 0.03 0.06 0.06 0.05 0.04 0.12
0.00 0.00 0.00 0.00 0.01 0.01 0.02 0.03 0.04 0.07 0.15 0.21 0.18 0.08 0.05 0.04 0.06 0.09 0.09 0.08 0.07 0.05 0.02 0.01 0.01 0.01 0.00 0.00 0.00 0.00 0.00 0.00 0.01 0.01 0.02 0.03 0.05 0.08 0.12 0.14 0.12 0.12 0.10 0.19
0.01 0.03 0.02 0.03 0.07 0.10 0.10 0.09 0.10 0.10 0.10 0.11 0.16 0.21 0.18 0.13 0.11 0.11 0.13 0.13 0.11 0.09 0.07 0.05 0.09 0.06 0.01 0.02 0.04 0.01 0.01 0.00 0.01 0.01 0.01 0.07 0.13 0.11 0.12 0.14 0.14 0.14 0.15 0.18
0.19 0.16 0.11 0.13 0.19 0.24 0.24 0.27 0.27 0.27 0.25 0.21 0.18 0.17 0.16 0.12 0.09 0.09 0.09 0.10 0.10 0.08 0.08 0.07 0.08 0.04 0.02 0.04 0.08 0.02 0.01 0.01 0.02 0.04 0.11 0.17 0.16 0.17 0.18 0.22 0.20 0.16 0.14 0.13
0.23 0.27 0.27 0.29 0.40 0.34 0.28 0.23 0.15 0.10 0.06 0.04 0.05 0.05 0.03 0.02 0.01 0.01 0.02 0.03 0.04 0.05 0.07 0.07 0.08 0.07 0.09 0.14 0.16 0.06 0.06 0.07 0.12 0.18 0.26 0.33 0.33 0.30 0.25 0.20 0.22 0.21 0.20 0.19
0.08 0.10 0.14 0.18 0.22 0.19 0.11 0.11 0.11 0.11 0.07 0.04 0.03 0.03 0.04 0.03 0.02 0.01 0.02 0.02 0.02 0.07 0.04 0.06 0.09 0.14 0.18 0.27 0.23 0.19 0.22 0.30 0.33 0.35 0.35 0.34 0.34 0.29 0.26 0.25 0.25 0.22 0.24 0.22
0.12 0.05 0.02 0.01 0.00 0.02 0.07 0.09 0.11 0.15 0.14 0.11 0.07 0.05 0.04 0.04 0.04 0.04 0.05 0.04 0.04 0.06 0.06 0.07 0.11 0.15 0.17 0.18 0.15 0.21 0.23 0.27 0.28 0.26 0.24 0.25 0.23 0.21 0.19 0.17 0.18 0.21 0.20 0.17
0.21 0.09 0.03 0.01 0.00 0.00 0.00 0.00 0.00 0.02 0.05 0.06 0.06 0.06 0.06 0.07 0.05 0.04 0.03 0.03 0.03 0.02 0.02 0.06 0.10 0.12 0.13 0.13 0.17 0.26 0.26 0.27 0.26 0.23 0.20 0.21 0.18 0.17 0.17 0.15 0.15 0.12 0.11 0.13
0.12 0.06 0.04 0.02 0.02 0.02 0.03 0.03 0.02 0.03 0.02 0.02 0.01 0.01 0.01 0.01 0.00 0.00 0.01 0.02 0.02 0.01 0.00 0.01 0.01 0.01 0.02 0.04 0.08 0.11 0.12 0.12 0.12 0.12 0.11 0.10 0.07 0.08 0.07 0.07 0.08 0.09 0.11 0.08
0.09 0.08 0.06 0.05 0.04 0.03 0.04 0.06 0.06 0.10 0.07 0.04 0.04 0.05 0.03 0.01 0.00 0.00 0.01 0.03 0.03 0.05 0.05 0.06 0.04 0.02 0.01 0.00 0.00 0.00 0.01 0.02 0.06 0.07 0.06 0.06 0.06 0.06 0.06 0.05 0.05 0.06 0.07 0.05
0.01 0.01 0.01 0.01 0.01 0.01 0.00 0.00 0.01 0.01 0.01 0.01 0.02 0.03 0.02 0.01 0.01 0.01 0.02 0.02 0.03 0.05 0.10 0.12 0.11 0.08 0.06 0.04 0.03 0.02 0.01 0.01 0.01 0.04 0.06 0.05 0.05 0.05 0.04 0.04 0.05 0.05 0.05 0.05

GFSNGP_prec_precacc_114.txt.gz
Total_Precipitation_Accumulation
0.43 0.17 0.67 0.68 0.52 0.76 1.52 0.99 1.09 0.39 0.20 0.04 0.04 0.05 0.02 0.01 0.03 0.06 0.04 0.01 0.01 0.00 0.01 0.00 0.01 0.02 0.02 0.04 0.06 0.11 0.11 0.10 0.08 0.03 0.05 0.06 0.05 0.05 0.05 0.04 0.05 0.05 0.06 0.07
0.83 0.36 0.36 0.62 0.61 0.81 0.83 0.77 0.84 0.30 0.23 0.04 0.01 0.01 0.02 0.11 0.15 0.08 0.05 0.02 0.00 0.00 0.00 0.01 0.01 0.00 0.00 0.03 0.06 0.07 0.08 0.07 0.04 0.04 0.04 0.04 0.11 0.22 0.13 0.18 0.17 0.21 0.33 0.26
0.71 0.48 0.70 1.12 0.77 0.59 0.38 0.37 0.49 0.47 0.13 0.07 0.11 0.06 0.17 0.16 0.09 0.10 0.06 0.01 0.00 0.00 0.00 0.00 0.00 0.00 0.01 0.03 0.02 0.03 0.06 0.06 0.04 0.05 0.08 0.03 0.06 0.14 0.34 0.41 0.35 0.43 0.67 0.83
0.75 0.73 1.02 0.63 0.51 0.35 0.36 0.36 0.32 0.16 0.04 0.07 0.12 0.11 0.26 0.06 0.07 0.05 0.02 0.00 0.00 0.00 0.00 0.00 0.00 0.00 0.01 0.12 0.06 0.33 0.14 0.29 0.37 0.34 0.30 0.25 0.27 0.38 0.36 0.36 0.34 0.41 0.56 0.82
0.46 0.38 0.25 0.02 0.05 0.17 0.23 0.37 0.20 0.06 0.02 0.04 0.03 0.15 0.30 0.06 0.04 0.03 0.01 0.00 0.00 0.00 0.00 0.00 0.00 0.00 0.01 0.00 0.01 0.06 0.21 0.40 0.28 0.42 0.30 0.33 0.60 0.68 0.92 1.15 1.01 0.73 0.54 0.43
0.40 0.36 0.09 0.00 0.00 0.00 0.03 0.21 0.30 0.17 0.09 0.06 0.04 0.15 0.34 0.28 0.18 0.08 0.00 0.00 0.00 0.00 0.00 0.01 0.01 0.03 0.02 0.04 0.05 0.08 0.16 0.29 0.34 0.46 0.70 0.71 0.87 0.74 0.55 0.57 0.62 0.50 0.32 0.19
0.35 0.37 0.03 0.00 0.00 0.00 0.04 0.12 0.11 0.16 0.16 0.07 0.05 0.09 0.38 0.51 0.38 0.19 0.09 0.06 0.06 0.06 0.07 0.10 0.18 0.19 0.16 0.29 0.38 0.45 0.58 0.88 0.67 0.67 0.84 0.73 0.59 0.50 0.32 0.18 0.13 0.09 0.05 0.02
0.22 0.27 0.04 0.00 0.00 0.01 0.01 0.00 0.00 0.05 0.14 0.16 0.14 0.06 0.09 0.23 0.25 0.26 0.26 0.29 0.32 0.23 0.34 0.46 0.74 0.62 0.51 0.60 0.67 0.67 0.50 0.43 0.43 0.32 0.24 0.18 0.08 0.04 0.01 0.00 0.00 0.00 0.00 0.00
0.08 0.05 0.01 0.01 0.00 0.00 0.00 0.00 0.00 0.01 0.11 0.17 0.21 0.12 0.05 0.06 0.07 0.04 0.04 0.13 0.18 0.25 0.41 0.42 0.51 0.38 0.39 0.25 0.25 0.25 0.14 0.10 0.08 0.05 0.01 0.00 0.00 0.00 0.00 0.00 0.00 0.00 0.00 0.00
0.00 0.01 0.04 0.16 0.17 0.08 0.04 0.01 0.00 0.00 0.00 0.00 0.06 0.11 0.01 0.01 0.01 0.02 0.02 0.02 0.01 0.01 0.01 0.04 0.03 0.03 0.03 0.02 0.03 0.03 0.01 0.00 0.00 0.00 0.00 0.00 0.00 0.00 0.00 0.00 0.00 0.00 0.00 0.00
0.00 0.00 0.00 0.00 0.02 0.05 0.07 0.07 0.05 0.03 0.01 0.00 0.01 0.02 0.02 0.03 0.01 0.00 0.00 0.00 0.00 0.00 0.00 0.01 0.00 0.00 0.00 0.00 0.00 0.00 0.00 0.00 0.00 0.00 0.00 0.00 0.00 0.00 0.00 0.00 0.01 0.01 0.01 0.01
0.01 0.01 0.00 0.00 0.00 0.00 0.00 0.01 0.03 0.03 0.01 0.01 0.01 0.05 0.05 0.03 0.01 0.01 0.00 0.00 0.01 0.01 0.01 0.02 0.02 0.01 0.00 0.00 0.00 0.00 0.00 0.00 0.00 0.00 0.00 0.00 0.00 0.00 0.02 0.05 0.07 0.08 0.07 0.06
0.00 0.00 0.00 0.00 0.00 0.00 0.00 0.00 0.00 0.01 0.02 0.01 0.00 0.03 0.04 0.03 0.03 0.02 0.00 0.01 0.02 0.01 0.00 0.01 0.04 0.08 0.09 0.07 0.05 0.06 0.08 0.10 0.10 0.11 0.09 0.07 0.05 0.03 0.01 0.04 0.08 0.10 0.11 0.13
0.00 0.00 0.01 0.00 0.00 0.00 0.01 0.01 0.01 0.02 0.02 0.01 0.01 0.02 0.04 0.06 0.15 0.11 0.08 0.08 0.05 0.01 0.00 0.00 0.00 0.00 0.01 0.02 0.04 0.05 0.07 0.11 0.12 0.16 0.20 0.24 0.27 0.22 0.16 0.09 0.08 0.10 0.15 0.12
0.00 0.00 0.00 0.00 0.00 0.00 0.01 0.02 0.03 0.04 0.03 0.01 0.02 0.02 0.04 0.08 0.19 0.34 0.29 0.21 0.19 0.19 0.14 0.08 0.04 0.02 0.01 0.00 0.00 0.00 0.00 0.00 0.00 0.00 0.01 0.03 0.03 0.06 0.09 0.10 0.11 0.10 0.09 0.16
0.00 0.00 0.00 0.01 0.00 0.00 0.01 0.04 0.07 0.09 0.04 0.02 0.01 0.01 0.01 0.01 0.02 0.05 0.05 0.06 0.08 0.09 0.06 0.04 0.04 0.04 0.03 0.03 0.01 0.00 0.00 0.02 0.02 0.00 0.01 0.01 0.01 0.02 0.02 0.03 0.05 0.09 0.13 0.16
0.00 0.01 0.01 0.01 0.00 0.00 0.00 0.03 0.07 0.16 0.12 0.04 0.02 0.01 0.01 0.01 0.00 0.00 0.02 0.02 0.01 0.02 0.01 0.00 0.00 0.01 0.00 0.00 0.00 0.00 0.00 0.01 0.05 0.01 0.02 0.02 0.02 0.03 0.03 0.06 0.06 0.06 0.06 0.19
0.00 0.00 0.00 0.00 0.01 0.01 0.02 0.03 0.04 0.07 0.15 0.21 0.18 0.08 0.05 0.04 0.06 0.09 0.09 0.08 0.07 0.05 0.02 0.01 0.02 0.01 0.00 0.00 0.00 0.00 0.00 0.00 0.01 0.01 0.02 0.03 0.05 0.08 0.12 0.14 0.12 0.12 0.10 0.23
0.01 0.03 0.02 0.03 0.07 0.10 0.10 0.09 0.10 0.10 0.10 0.11 0.16 0.21 0.18 0.13 0.11 0.11 0.13 0.13 0.11 0.09 0.07 0.05 0.09 0.06 0.01 0.02 0.04 0.01 0.01 0.00 0.01 0.02 0.01 0.07 0.13 0.11 0.12 0.14 0.14 0.14 0.16 0.19
0.19 0.16 0.11 0.13 0.19 0.24 0.24 0.27 0.27 0.27 0.25 0.21 0.18 0.17 0.16 0.12 0.09 0.09 0.09 0.10 0.10 0.08 0.08 0.07 0.09 0.04 0.02 0.04 0.08 0.02 0.01 0.01 0.03 0.05 0.13 0.18 0.18 0.18 0.19 0.23 0.21 0.16 0.15 0.15
0.23 0.27 0.27 0.29 0.40 0.34 0.28 0.23 0.15 0.10 0.06 0.04 0.05 0.05 0.03 0.02 0.01 0.01 0.02 0.03 0.04 0.05 0.07 0.07 0.08 0.07 0.09 0.14 0.16 0.06 0.06 0.07 0.13 0.19 0.27 0.34 0.35 0.31 0.26 0.21 0.22 0.22 0.21 0.21
0.08 0.10 0.14 0.18 0.22 0.19 0.11 0.11 0.11 0.11 0.07 0.04 0.03 0.03 0.04 0.03 0.02 0.01 0.02 0.02 0.02 0.07 0.04 0.06 0.09 0.14 0.18 0.27 0.23 0.19 0.22 0.30 0.33 0.35 0.35 0.34 0.34 0.29 0.26 0.25 0.25 0.22 0.24 0.22
0.12 0.05 0.02 0.01 0.00 0.02 0.07 0.09 0.11 0.15 0.14 0.11 0.07 0.05 0.04 0.04 0.04 0.04 0.05 0.04 0.04 0.06 0.06 0.07 0.11 0.15 0.17 0.18 0.15 0.21 0.23 0.27 0.28 0.26 0.24 0.25 0.23 0.22 0.19 0.17 0.18 0.21 0.20 0.17
0.21 0.09 0.03 0.01 0.00 0.00 0.00 0.00 0.00 0.02 0.05 0.06 0.06 0.06 0.06 0.07 0.05 0.04 0.03 0.03 0.03 0.02 0.02 0.06 0.10 0.12 0.13 0.13 0.17 0.26 0.26 0.27 0.26 0.23 0.20 0.21 0.18 0.17 0.17 0.15 0.16 0.12 0.11 0.13
0.12 0.06 0.04 0.02 0.02 0.02 0.03 0.03 0.02 0.03 0.02 0.02 0.01 0.01 0.01 0.01 0.00 0.00 0.01 0.02 0.02 0.01 0.00 0.01 0.01 0.01 0.02 0.04 0.08 0.11 0.12 0.12 0.12 0.12 0.11 0.10 0.08 0.08 0.08 0.07 0.08 0.09 0.11 0.08
0.09 0.08 0.06 0.05 0.04 0.03 0.04 0.06 0.06 0.10 0.07 0.04 0.04 0.05 0.03 0.01 0.00 0.00 0.01 0.03 0.03 0.05 0.05 0.06 0.04 0.02 0.01 0.01 0.01 0.00 0.01 0.02 0.06 0.07 0.06 0.06 0.06 0.06 0.06 0.05 0.05 0.06 0.07 0.05
0.01 0.01 0.01 0.01 0.01 0.01 0.00 0.00 0.01 0.01 0.01 0.01 0.02 0.03 0.02 0.01 0.01 0.01 0.02 0.02 0.03 0.05 0.10 0.12 0.11 0.08 0.06 0.05 0.04 0.02 0.02 0.01 0.02 0.04 0.06 0.05 0.05 0.05 0.04 0.04 0.05 0.05 0.05 0.05

GFSNGP_prec_precacc_117.txt.gz
Total_Precipitation_Accumulation
0.43 0.17 0.67 0.68 0.52 0.76 1.52 0.99 1.09 0.39 0.20 0.04 0.04 0.05 0.02 0.01 0.03 0.06 0.04 0.01 0.01 0.00 0.01 0.00 0.01 0.02 0.02 0.04 0.06 0.11 0.12 0.10 0.08 0.04 0.05 0.07 0.08 0.08 0.07 0.06 0.06 0.06 0.06 0.07
0.83 0.36 0.36 0.62 0.61 0.81 0.83 0.77 0.84 0.30 0.23 0.04 0.01 0.01 0.02 0.11 0.15 0.08 0.05 0.02 0.00 0.00 0.00 0.01 0.01 0.00 0.00 0.03 0.06 0.07 0.08 0.07 0.04 0.04 0.05 0.04 0.11 0.22 0.13 0.18 0.17 0.21 0.33 0.26
0.71 0.48 0.70 1.12 0.77 0.59 0.38 0.37 0.49 0.47 0.13 0.07 0.11 0.06 0.17 0.16 0.09 0.10 0.06 0.01 0.00 0.00 0.00 0.00 0.00 0.00 0.01 0.03 0.02 0.03 0.06 0.06 0.04 0.05 0.08 0.03 0.06 0.14 0.34 0.41 0.35 0.43 0.67 0.83
0.75 0.73 1.02 0.63 0.51 0.35 0.36 0.36 0.32 0.16 0.04 0.07 0.12 0.11 0.26 0.06 0.07 0.05 0.02 0.00 0.00 0.00 0.00 0.00 0.00 0.00 0.01 0.12 0.06 0.33 0.14 0.29 0.37 0.34 0.30 0.25 0.27 0.38 0.36 0.36 0.34 0.41 0.56 0.82
0.46 0.38 0.25 0.02 0.05 0.17 0.23 0.37 0.20 0.06 0.02 0.04 0.03 0.15 0.30 0.06 0.04 0.03 0.01 0.00 0.00 0.00 0.00 0.00 0.00 0.00 0.01 0.00 0.01 0.06 0.21 0.40 0.28 0.42 0.30 0.33 0.60 0.68 0.92 1.15 1.01 0.73 0.54 0.43
0.40 0.36 0.09 0.00 0.00 0.00 0.03 0.21 0.30 0.17 0.09 0.06 0.04 0.15 0.34 0.28 0.18 0.08 0.00 0.00 0.00 0.00 0.00 0.01 0.01 0.03 0.02 0.04 0.05 0.08 0.16 0.29 0.34 0.46 0.70 0.71 0.87 0.74 0.55 0.57 0.62 0.50 0.32 0.19
0.35 0.37 0.03 0.00 0.00 0.00 0.04 0.12 0.11 0.16 0.16 0.07 0.05 0.09 0.38 0.51 0.38 0.19 0.09 0.06 0.06 0.06 0.07 0.10 0.18 0.19 0.16 0.29 0.38 0.45 0.58 0.88 0.67 0.67 0.84 0.73 0.59 0.50 0.32 0.18 0.13 0.09 0.05 0.02
0.22 0.27 0.04 0.00 0.00 0.01 0.01 0.00 0.00 0.05 0.14 0.16 0.14 0.06 0.09 0.23 0.25 0.26 0.26 0.29 0.32 0.23 0.34 0.46 0.74 0.62 0.51 0.60 0.67 0.67 0.50 0.43 0.43 0.32 0.24 0.18 0.08 0.04 0.01 0.00 0.00 0.00 0.00 0.00
0.08 0.05 0.01 0.01 0.00 0.00 0.00 0.00 0.00 0.01 0.11 0.17 0.21 0.12 0.05 0.06 0.07 0.04 0.04 0.13 0.18 0.25 0.41 0.42 0.51 0.38 0.39 0.25 0.25 0.25 0.14 0.10 0.08 0.05 0.01 0.00 0.00 0.00 0.00 0.00 0.00 0.00 0.00 0.00
0.00 0.01 0.04 0.16 0.17 0.08 0.04 0.01 0.00 0.00 0.00 0.00 0.06 0.11 0.01 0.01 0.01 0.02 0.02 0.02 0.01 0.01 0.01 0.04 0.03 0.03 0.03 0.02 0.03 0.03 0.01 0.00 0.00 0.00 0.00 0.00 0.00 0.00 0.00 0.00 0.00 0.00 0.00 0.00
0.00 0.00 0.00 0.00 0.02 0.05 0.07 0.07 0.05 0.03 0.01 0.00 0.01 0.02 0.02 0.03 0.01 0.00 0.00 0.00 0.00 0.00 0.00 0.01 0.00 0.00 0.00 0.00 0.00 0.00 0.00 0.00 0.00 0.00 0.00 0.00 0.00 0.00 0.00 0.00 0.01 0.01 0.01 0.01
0.01 0.01 0.00 0.00 0.00 0.00 0.00 0.01 0.03 0.03 0.01 0.01 0.01 0.05 0.05 0.03 0.01 0.01 0.00 0.00 0.01 0.01 0.01 0.02 0.02 0.01 0.00 0.00 0.00 0.00 0.00 0.00 0.00 0.00 0.00 0.00 0.00 0.00 0.02 0.06 0.08 0.08 0.07 0.06
0.00 0.00 0.00 0.00 0.00 0.00 0.00 0.00 0.00 0.01 0.02 0.01 0.00 0.03 0.05 0.03 0.03 0.02 0.00 0.01 0.02 0.01 0.00 0.01 0.04 0.08 0.09 0.07 0.05 0.06 0.08 0.10 0.10 0.11 0.09 0.07 0.05 0.03 0.02 0.06 0.10 0.11 0.12 0.14
0.00 0.00 0.01 0.00 0.00 0.00 0.01 0.01 0.01 0.02 0.02 0.01 0.01 0.02 0.04 0.06 0.15 0.11 0.08 0.08 0.05 0.01 0.00 0.00 0.00 0.00 0.01 0.02 0.04 0.05 0.07 0.11 0.12 0.16 0.20 0.24 0.27 0.25 0.23 0.18 0.14 0.12 0.16 0.15
0.00 0.00 0.00 0.00 0.00 0.00 0.01 0.02 0.03 0.04 0.03 0.01 0.02 0.02 0.04 0.08 0.19 0.34 0.29 0.21 0.19 0.19 0.14 0.08 0.04 0.02 0.01 0.00 0.00 0.00 0.00 0.00 0.00 0.00 0.01 0.03 0.03 0.07 0.12 0.18 0.21 0.20 0.15 0.22
0.00 0.00 0.00 0.01 0.00 0.00 0.01 0.04 0.07 0.09 0.04 0.02 0.01 0.01 0.01 0.01 0.02 0.05 0.05 0.06 0.08 0.09 0.06 0.04 0.04 0.04 0.03 0.03 0.01 0.00 0.01 0.03 0.03 0.01 0.02 0.03 0.03 0.02 0.02 0.03 0.05 0.10 0.16 0.20
0.00 0.01 0.01 0.01 0.00 0.00 0.00 0.03 0.07 0.16 0.12 0.04 0.02 0.01 0.01 0.01 0.00 0.00 0.02 0.02 0.01 0.02 0.01 0.00 0.00 0.01 0.00 0.00 0.00 0.00 0.00 0.01 0.05 0.01 0.02 0.02 0.02 0.03 0.03 0.06 0.06 0.06 0.06 0.24
0.00 0.00 0.00 0.00 0.01 0.01 0.02 0.03 0.04 0.07 0.15 0.21 0.18 0.08 0.05 0.04 0.06 0.09 0.09 0.08 0.07 0.05 0.02 0.01 0.02 0.01 0.00 0.00 0.00 0.00 0.00 0.00 0.01 0.01 0.02 0.03 0.05 0.08 0.12 0.14 0.12 0.12 0.10 0.24
0.01 0.03 0.02 0.03 0.07 0.10 0.10 0.09 0.10 0.10 0.10 0.11 0.16 0.21 0.18 0.13 0.11 0.11 0.13 0.13 0.11 0.09 0.07 0.05 0.09 0.06 0.01 0.02 0.04 0.01 0.01 0.00 0.01 0.02 0.02 0.08 0.15 0.13 0.14 0.16 0.15 0.14 0.16 0.19
0.19 0.16 0.11 0.13 0.19 0.24 0.24 0.27 0.27 0.27 0.25 0.21 0.18 0.17 0.16 0.12 0.09 0.09 0.09 0.10 0.10 0.08 0.08 0.07 0.09 0.04 0.02 0.04 0.08 0.02 0.01 0.01 0.03 0.05 0.13 0.19 0.19 0.21 0.23 0.28 0.26 0.20 0.17 0.16
0.23 0.27 0.27 0.29 0.40 0.34 0.28 0.23 0.15 0.10 0.06 0.04 0.05 0.05 0.03 0.02 0.01 0.01 0.02 0.03 0.04 0.05 0.07 0.07 0.08 0.07 0.09 0.14 0.16 0.06 0.06 0.07 0.13 0.19 0.27 0.34 0.35 0.32 0.27 0.24 0.26 0.27 0.26 0.24
0.08 0.10 0.14 0.18 0.22 0.19 0.11 0.11 0.11 0.11 0.07 0.04 0.03 0.03 0.04 0.03 0.02 0.01 0.02 0.02 0.02 0.07 0.04 0.06 0.09 0.14 0.18 0.27 0.23 0.19 0.22 0.30 0.33 0.35 0.35 0.34 0.34 0.29 0.26 0.25 0.26 0.23 0.27 0.25
0.12 0.05 0.02 0.01 0.00 0.02 0.07 0.09 0.11 0.15 0.14 0.11 0.07 0.05 0.04 0.04 0.04 0.04 0.05 0.04 0.04 0.06 0.06 0.07 0.11 0.15 0.17 0.18 0.15 0.21 0.23 0.27 0.28 0.26 0.24 0.25 0.23 0.22 0.19 0.17 0.18 0.21 0.20 0.17
0.21 0.09 0.03 0.01 0.00 0.00 0.00 0.00 0.00 0.02 0.05 0.06 0.06 0.06 0.06 0.07 0.05 0.04 0.03 0.03 0.03 0.02 0.02 0.06 0.10 0.12 0.13 0.13 0.17 0.26 0.26 0.27 0.26 0.23 0.20 0.21 0.18 0.17 0.17 0.15 0.16 0.12 0.11 0.13
0.12 0.06 0.04 0.02 0.02 0.02 0.03 0.03 0.02 0.03 0.02 0.02 0.01 0.01 0.01 0.01 0.00 0.00 0.01 0.02 0.02 0.01 0.00 0.01 0.01 0.01 0.02 0.04 0.08 0.11 0.12 0.12 0.12 0.13 0.11 0.10 0.08 0.08 0.08 0.07 0.08 0.09 0.11 0.08
0.09 0.08 0.06 0.05 0.04 0.03 0.04 0.06 0.06 0.10 0.07 0.04 0.04 0.05 0.03 0.01 0.00 0.00 0.01 0.03 0.03 0.05 0.05 0.06 0.04 0.02 0.01 0.01 0.01 0.01 0.01 0.02 0.07 0.08 0.07 0.07 0.06 0.06 0.06 0.05 0.06 0.06 0.09 0.08
0.01 0.01 0.01 0.01 0.01 0.01 0.00 0.00 0.01 0.01 0.01 0.01 0.02 0.03 0.02 0.01 0.01 0.01 0.02 0.02 0.03 0.05 0.10 0.12 0.11 0.08 0.06 0.05 0.04 0.02 0.02 0.01 0.03 0.05 0.07 0.06 0.06 0.05 0.04 0.04 0.05 0.05 0.06 0.09

GFSNGP_prec_precacc_120.txt.gz
Total_Precipitation_Accumulation
0.43 0.17 0.67 0.68 0.52 0.76 1.52 0.99 1.09 0.39 0.20 0.04 0.04 0.05 0.02 0.01 0.03 0.06 0.04 0.01 0.01 0.00 0.01 0.00 0.01 0.02 0.02 0.04 0.06 0.11 0.16 0.15 0.12 0.09 0.12 0.15 0.16 0.14 0.12 0.12 0.13 0.14 0.15 0.16
0.83 0.36 0.36 0.62 0.61 0.81 0.83 0.77 0.84 0.30 0.23 0.04 0.01 0.01 0.02 0.11 0.15 0.08 0.05 0.02 0.00 0.00 0.00 0.01 0.01 0.00 0.00 0.03 0.06 0.07 0.09 0.07 0.04 0.05 0.05 0.05 0.11 0.22 0.13 0.18 0.17 0.21 0.33 0.26
0.71 0.48 0.70 1.12 0.77 0.59 0.38 0.37 0.49 0.47 0.13 0.07 0.11 0.06 0.17 0.16 0.09 0.10 0.06 0.01 0.00 0.00 0.00 0.00 0.00 0.00 0.01 0.03 0.02 0.03 0.06 0.06 0.04 0.05 0.09 0.03 0.07 0.15 0.34 0.41 0.35 0.43 0.67 0.83
0.75 0.73 1.02 0.63 0.51 0.35 0.36 0.36 0.32 0.16 0.04 0.07 0.12 0.11 0.26 0.06 0.07 0.05 0.02 0.00 0.00 0.00 0.00 0.00 0.00 0.00 0.01 0.12 0.06 0.33 0.14 0.29 0.37 0.34 0.30 0.25 0.27 0.38 0.36 0.36 0.34 0.41 0.56 0.82
0.46 0.38 0.25 0.02 0.05 0.17 0.23 0.37 0.20 0.06 0.02 0.04 0.03 0.15 0.30 0.06 0.04 0.03 0.01 0.00 0.00 0.00 0.00 0.00 0.00 0.00 0.01 0.00 0.01 0.06 0.21 0.40 0.28 0.42 0.30 0.33 0.60 0.68 0.92 1.15 1.01 0.73 0.54 0.43
0.40 0.36 0.09 0.00 0.00 0.00 0.03 0.21 0.30 0.17 0.09 0.06 0.04 0.15 0.34 0.28 0.18 0.08 0.00 0.00 0.00 0.00 0.00 0.01 0.01 0.03 0.02 0.04 0.05 0.08 0.16 0.29 0.34 0.46 0.70 0.71 0.87 0.74 0.55 0.57 0.62 0.50 0.32 0.19
0.35 0.37 0.03 0.00 0.00 0.00 0.04 0.12 0.11 0.16 0.16 0.07 0.05 0.09 0.38 0.51 0.38 0.19 0.09 0.06 0.06 0.06 0.07 0.10 0.18 0.19 0.16 0.29 0.38 0.45 0.58 0.88 0.67 0.67 0.84 0.73 0.59 0.50 0.32 0.18 0.13 0.09 0.05 0.02
0.22 0.27 0.04 0.00 0.00 0.01 0.01 0.00 0.00 0.05 0.14 0.16 0.14 0.06 0.09 0.23 0.25 0.26 0.26 0.29 0.32 0.23 0.34 0.46 0.74 0.62 0.51 0.60 0.67 0.67 0.50 0.43 0.43 0.32 0.24 0.18 0.08 0.04 0.01 0.00 0.00 0.00 0.00 0.00
0.08 0.05 0.01 0.01 0.00 0.00 0.00 0.00 0.00 0.01 0.11 0.17 0.21 0.12 0.05 0.06 0.07 0.04 0.04 0.13 0.18 0.25 0.41 0.42 0.51 0.38 0.39 0.25 0.25 0.25 0.14 0.10 0.08 0.05 0.01 0.00 0.00 0.00 0.00 0.00 0.00 0.00 0.00 0.00
0.00 0.01 0.04 0.16 0.17 0.08 0.04 0.01 0.00 0.00 0.00 0.00 0.06 0.11 0.01 0.01 0.01 0.02 0.02 0.02 0.01 0.01 0.01 0.04 0.03 0.03 0.03 0.02 0.03 0.03 0.01 0.00 0.00 0.00 0.00 0.00 0.00 0.00 0.00 0.00 0.00 0.00 0.00 0.00
0.00 0.00 0.00 0.00 0.02 0.05 0.07 0.07 0.05 0.03 0.01 0.00 0.01 0.02 0.02 0.03 0.01 0.00 0.00 0.00 0.00 0.00 0.00 0.01 0.00 0.00 0.00 0.00 0.00 0.00 0.00 0.00 0.00 0.00 0.00 0.00 0.00 0.00 0.00 0.01 0.01 0.01 0.01 0.01
0.01 0.01 0.00 0.00 0.00 0.00 0.00 0.01 0.03 0.03 0.01 0.01 0.01 0.05 0.05 0.03 0.01 0.01 0.00 0.00 0.01 0.01 0.01 0.02 0.02 0.01 0.00 0.00 0.00 0.00 0.00 0.00 0.00 0.00 0.00 0.00 0.00 0.01 0.03 0.06 0.08 0.08 0.07 0.06
0.00 0.00 0.00 0.00 0.00 0.00 0.00 0.00 0.00 0.01 0.02 0.01 0.00 0.03 0.05 0.03 0.03 0.02 0.00 0.01 0.02 0.01 0.00 0.01 0.04 0.08 0.09 0.07 0.05 0.06 0.08 0.10 0.10 0.11 0.09 0.07 0.05 0.04 0.02 0.07 0.10 0.12 0.12 0.14
0.00 0.00 0.01 0.00 0.00 0.00 0.01 0.01 0.01 0.02 0.02 0.01 0.01 0.02 0.04 0.06 0.15 0.11 0.08 0.08 0.05 0.01 0.00 0.00 0.00 0.00 0.01 0.02 0.04 0.05 0.07 0.11 0.12 0.16 0.20 0.24 0.27 0.25 0.23 0.19 0.15 0.16 0.24 0.21
0.00 0.00 0.00 0.00 0.00 0.00 0.01 0.02 0.03 0.04 0.03 0.01 0.02 0.02 0.04 0.08 0.19 0.34 0.29 0.21 0.19 0.19 0.14 0.08 0.04 0.02 0.01 0.00 0.00 0.00 0.00 0.00 0.00 0.00 0.01 0.04 0.03 0.07 0.12 0.18 0.21 0.23 0.26 0.36
0.00 0.00 0.00 0.01 0.00 0.00 0.01 0.04 0.07 0.09 0.04 0.02 0.01 0.01 0.01 0.01 0.02 0.05 0.05 0.06 0.08 0.09 0.06 0.04 0.04 0.04 0.03 0.03 0.01 0.00 0.01 0.03 0.03 0.01 0.02 0.03 0.03 0.03 0.03 0.05 0.06 0.11 0.18 0.24
0.00 0.01 0.01 0.01 0.00 0.00 0.00 0.03 0.07 0.16 0.12 0.04 0.02 0.01 0.01 0.01 0.00 0.00 0.02 0.02 0.01 0.02 0.01 0.00 0.00 0.01 0.00 0.00 0.00 0.00 0.00 0.01 0.05 0.01 0.02 0.02 0.03 0.03 0.03 0.06 0.07 0.07 0.09 0.27
0.00 0.00 0.00 0.00 0.01 0.01 0.02 0.03 0.04 0.07 0.15 0.21 0.18 0.09 0.05 0.04 0.06 0.09 0.09 0.08 0.07 0.05 0.02 0.01 0.02 0.01 0.00 0.00 0.00 0.00 0.00 0.00 0.01 0.01 0.02 0.03 0.06 0.08 0.14 0.16 0.13 0.12 0.11 0.26
0.01 0.03 0.02 0.03 0.07 0.10 0.10 0.09 0.10 0.10 0.10 0.11 0.16 0.21 0.18 0.13 0.11 0.11 0.13 0.13 0.11 0.09 0.07 0.05 0.09 0.06 0.01 0.02 0.04 0.01 0.01 0.00 0.01 0.02 0.02 0.08 0.15 0.14 0.15 0.18 0.18 0.18 0.19 0.22
0.19 0.16 0.11 0.13 0.19 0.24 0.24 0.27 0.27 0.27 0.25 0.21 0.18 0.17 0.16 0.12 0.09 0.09 0.09 0.10 0.10 0.08 0.08 0.07 0.09 0.04 0.02 0.04 0.08 0.02 0.01 0.01 0.03 0.05 0.13 0.19 0.19 0.21 0.23 0.29 0.28 0.24 0.23 0.22
0.23 0.27 0.27 0.29 0.40 0.34 0.28 0.23 0.15 0.10 0.06 0.04 0.05 0.05 0.03 0.02 0.01 0.01 0.02 0.03 0.04 0.05 0.07 0.07 0.08 0.07 0.09 0.14 0.16 0.06 0.06 0.07 0.13 0.19 0.27 0.34 0.35 0.32 0.27 0.24 0.27 0.29 0.29 0.30
0.08 0.10 0.14 0.18 0.22 0.19 0.11 0.11 0.11 0.11 0.07 0.04 0.03 0.03 0.04 0.03 0.02 0.01 0.02 0.02 0.02 0.07 0.04 0.06 0.09 0.14 0.18 0.27 0.23 0.19 0.22 0.30 0.33 0.35 0.35 0.34 0.34 0.30 0.26 0.25 0.26 0.24 0.28 0.28
0.12 0.05 0.02 0.01 0.00 0.02 0.07 0.09 0.11 0.15 0.14 0.11 0.07 0.05 0.04 0.04 0.04 0.04 0.05 0.04 0.04 0.06 0.06 0.07 0.11 0.15 0.17 0.18 0.15 0.21 0.23 0.27 0.28 0.26 0.24 0.25 0.23 0.22 0.19 0.17 0.18 0.21 0.20 0.17
0.21 0.09 0.03 0.01 0.00 0.00 0.00 0.00 0.00 0.02 0.05 0.06 0.06 0.06 0.06 0.07 0.05 0.04 0.03 0.03 0.03 0.02 0.02 0.06 0.10 0.12 0.13 0.13 0.17 0.26 0.26 0.27 0.26 0.23 0.20 0.21 0.18 0.17 0.17 0.15 0.16 0.12 0.11 0.13
0.12 0.06 0.04 0.02 0.02 0.02 0.03 0.03 0.02 0.03 0.02 0.02 0.01 0.01 0.01 0.01 0.00 0.00 0.01 0.02 0.02 0.01 0.00 0.01 0.01 0.01 0.02 0.04 0.08 0.11 0.12 0.12 0.13 0.14 0.11 0.11 0.08 0.08 0.08 0.07 0.08 0.09 0.11 0.08
0.09 0.08 0.06 0.05 0.04 0.03 0.04 0.06 0.06 0.10 0.07 0.04 0.04 0.05 0.03 0.01 0.00 0.00 0.01 0.03 0.03 0.05 0.05 0.06 0.04 0.02 0.01 0.01 0.01 0.01 0.01 0.03 0.07 0.08 0.08 0.07 0.07 0.07 0.06 0.05 0.06 0.06 0.09 0.10
0.01 0.01 0.01 0.01 0.01 0.01 0.00 0.00 0.01 0.01 0.01 0.01 0.02 0.03 0.02 0.01 0.01 0.01 0.02 0.02 0.03 0.05 0.10 0.12 0.11 0.08 0.06 0.05 0.04 0.02 0.02 0.01 0.03 0.06 0.07 0.07 0.07 0.06 0.05 0.05 0.05 0.05 0.07 0.10

GFSNGP_prec_precacc_123.txt.gz
Total_Precipitation_Accumulation
0.43 0.17 0.67 0.68 0.52 0.76 1.52 0.99 1.09 0.39 0.20 0.04 0.04 0.05 0.02 0.01 0.03 0.06 0.04 0.01 0.01 0.00 0.01 0.00 0.01 0.02 0.02 0.04 0.06 0.11 0.17 0.16 0.16 0.24 0.27 0.26 0.30 0.28 0.24 0.24 0.29 0.35 0.46 0.47
0.83 0.36 0.36 0.62 0.61 0.81 0.83 0.77 0.84 0.30 0.23 0.04 0.01 0.01 0.02 0.11 0.15 0.08 0.05 0.02 0.00 0.00 0.00 0.01 0.01 0.00 0.00 0.03 0.06 0.07 0.09 0.07 0.05 0.05 0.06 0.06 0.12 0.25 0.20 0.27 0.28 0.31 0.40 0.33
0.71 0.48 0.70 1.12 0.77 0.59 0.38 0.37 0.49 0.47 0.13 0.07 0.11 0.06 0.17 0.16 0.09 0.10 0.06 0.01 0.00 0.00 0.00 0.00 0.00 0.00 0.01 0.03 0.02 0.03 0.06 0.06 0.04 0.05 0.09 0.04 0.07 0.15 0.34 0.41 0.36 0.44 0.68 0.84
0.75 0.73 1.02 0.63 0.51 0.35 0.36 0.36 0.32 0.16 0.04 0.07 0.12 0.11 0.26 0.06 0.07 0.05 0.02 0.00 0.00 0.00 0.00 0.00 0.00 0.00 0.01 0.12 0.06 0.33 0.14 0.29 0.37 0.34 0.30 0.25 0.27 0.38 0.36 0.36 0.34 0.41 0.56 0.82
0.46 0.38 0.25 0.02 0.05 0.17 0.23 0.37 0.20 0.06 0.02 0.04 0.03 0.15 0.30 0.06 0.04 0.03 0.01 0.00 0.00 0.00 0.00 0.00 0.00 0.00 0.01 0.00 0.01 0.06 0.21 0.40 0.28 0.42 0.30 0.33 0.60 0.68 0.92 1.15 1.01 0.73 0.54 0.43
0.40 0.36 0.09 0.00 0.00 0.00 0.03 0.21 0.30 0.17 0.09 0.06 0.04 0.15 0.34 0.28 0.18 0.08 0.00 0.00 0.00 0.00 0.00 0.01 0.01 0.03 0.02 0.04 0.05 0.08 0.16 0.29 0.34 0.46 0.70 0.71 0.87 0.74 0.55 0.57 0.62 0.50 0.32 0.19
0.35 0.37 0.03 0.00 0.00 0.00 0.04 0.12 0.11 0.16 0.16 0.07 0.05 0.09 0.38 0.51 0.38 0.19 0.09 0.06 0.06 0.06 0.07 0.10 0.18 0.19 0.16 0.29 0.38 0.45 0.58 0.88 0.67 0.67 0.84 0.73 0.59 0.50 0.32 0.18 0.13 0.09 0.05 0.02
0.22 0.27 0.04 0.00 0.00 0.01 0.01 0.00 0.00 0.05 0.14 0.16 0.14 0.06 0.09 0.23 0.25 0.26 0.26 0.29 0.32 0.23 0.34 0.46 0.74 0.62 0.51 0.60 0.67 0.67 0.50 0.43 0.43 0.32 0.24 0.18 0.08 0.04 0.01 0.00 0.00 0.00 0.00 0.00
0.08 0.05 0.01 0.01 0.00 0.00 0.00 0.00 0.00 0.01 0.11 0.17 0.21 0.12 0.05 0.06 0.07 0.04 0.04 0.13 0.18 0.25 0.41 0.42 0.51 0.38 0.39 0.25 0.25 0.25 0.14 0.10 0.08 0.05 0.01 0.00 0.00 0.00 0.00 0.00 0.00 0.00 0.00 0.00
0.00 0.01 0.04 0.16 0.17 0.08 0.04 0.01 0.00 0.00 0.00 0.00 0.06 0.11 0.01 0.01 0.01 0.02 0.02 0.02 0.01 0.01 0.01 0.04 0.03 0.03 0.03 0.02 0.03 0.03 0.01 0.00 0.00 0.00 0.00 0.00 0.00 0.00 0.00 0.00 0.00 0.00 0.00 0.00
0.00 0.00 0.00 0.00 0.02 0.05 0.07 0.07 0.05 0.03 0.01 0.00 0.01 0.02 0.02 0.03 0.01 0.00 0.00 0.00 0.00 0.00 0.00 0.01 0.00 0.00 0.00 0.00 0.00 0.00 0.00 0.00 0.00 0.00 0.00 0.00 0.00 0.00 0.00 0.01 0.01 0.01 0.01 0.01
0.01 0.01 0.00 0.00 0.00 0.00 0.00 0.01 0.03 0.03 0.01 0.01 0.01 0.05 0.05 0.03 0.01 0.01 0.00 0.00 0.01 0.01 0.01 0.02 0.02 0.01 0.00 0.00 0.00 0.00 0.00 0.00 0.00 0.00 0.00 0.00 0.00 0.01 0.03 0.07 0.08 0.08 0.07 0.07
0.00 0.00 0.00 0.00 0.00 0.00 0.00 0.00 0.00 0.01 0.02 0.01 0.00 0.03 0.05 0.03 0.03 0.02 0.00 0.01 0.02 0.01 0.00 0.01 0.04 0.08 0.09 0.07 0.05 0.06 0.08 0.10 0.10 0.11 0.09 0.07 0.05 0.04 0.02 0.07 0.11 0.12 0.13 0.15
0.00 0.00 0.01 0.00 0.00 0.00 0.01 0.01 0.01 0.02 0.02 0.01 0.01 0.02 0.04 0.06 0.15 0.11 0.08 0.08 0.05 0.01 0.00 0.00 0.00 0.00 0.01 0.02 0.04 0.05 0.07 0.11 0.12 0.16 0.20 0.24 0.27 0.25 0.23 0.19 0.15 0.16 0.24 0.23
0.00 0.00 0.00 0.00 0.00 0.00 0.01 0.02 0.03 0.04 0.03 0.01 0.02 0.02 0.04 0.08 0.19 0.34 0.29 0.21 0.19 0.19 0.14 0.08 0.04 0.02 0.01 0.00 0.00 0.00 0.00 0.00 0.00 0.00 0.01 0.04 0.03 0.07 0.12 0.18 0.21 0.23 0.26 0.37
0.00 0.00 0.00 0.01 0.00 0.00 0.01 0.04 0.07 0.09 0.04 0.02 0.01 0.01 0.01 0.01 0.02 0.05 0.05 0.06 0.08 0.09 0.06 0.04 0.04 0.04 0.03 0.03 0.01 0.00 0.01 0.03 0.03 0.01 0.02 0.03 0.03 0.03 0.03 0.05 0.07 0.12 0.18 0.25
0.00 0.01 0.01 0.01 0.00 0.00 0.00 0.03 0.07 0.16 0.12 0.04 0.02 0.01 0.01 0.01 0.00 0.00 0.02 0.02 0.01 0.02 0.01 0.00 0.00 0.01 0.00 0.00 0.00 0.00 0.00 0.01 0.05 0.01 0.02 0.02 0.03 0.03 0.03 0.07 0.07 0.08 0.09 0.29
0.00 0.00 0.00 0.00 0.01 0.01 0.02 0.03 0.04 0.07 0.15 0.21 0.18 0.09 0.05 0.04 0.06 0.09 0.09 0.08 0.07 0.05 0.02 0.01 0.02 0.01 0.00 0.00 0.00 0.00 0.00 0.00 0.01 0.01 0.02 0.03 0.06 0.08 0.14 0.16 0.14 0.13 0.11 0.28
0.01 0.03 0.02 0.03 0.07 0.10 0.10 0.09 0.10 0.10 0.10 0.11 0.16 0.21 0.18 0.13 0.11 0.11 0.13 0.13 0.11 0.09 0.07 0.05 0.09 0.06 0.01 0.02 0.04 0.01 0.01 0.00 0.01 0.02 0.02 0.08 0.15 0.14 0.15 0.18 0.18 0.18 0.19 0.22
0.19 0.16 0.11 0.13 0.19 0.24 0.24 0.27 0.27 0.27 0.25 0.21 0.18 0.17 0.16 0.12 0.09 0.09 0.09 0.10 0.10 0.08 0.08 0.07 0.09 0.04 0.02 0.04 0.08 0.02 0.01 0.01 0.03 0.05 0.13 0.19 0.19 0.21 0.23 0.29 0.28 0.24 0.23 0.22
0.23 0.27 0.27 0.29 0.40 0.34 0.28 0.23 0.15 0.10 0.06 0.04 0.05 0.05 0.03 0.02 0.01 0.01 0.02 0.03 0.04 0.05 0.07 0.07 0.08 0.07 0.09 0.14 0.16 0.06 0.06 0.07 0.13 0.19 0.27 0.34 0.35 0.32 0.27 0.24 0.27 0.29 0.29 0.30
0.08 0.10 0.14 0.18 0.22 0.19 0.11 0.11 0.11 0.11 0.07 0.04 0.03 0.03 0.04 0.03 0.02 0.01 0.02 0.02 0.02 0.07 0.04 0.06 0.09 0.14 0.18 0.27 0.23 0.19 0.22 0.30 0.33 0.35 0.35 0.34 0.34 0.30 0.26 0.25 0.26 0.24 0.28 0.28
0.12 0.05 0.02 0.01 0.00 0.02 0.07 0.09 0.11 0.15 0.14 0.11 0.07 0.05 0.04 0.04 0.04 0.04 0.05 0.04 0.04 0.06 0.06 0.07 0.11 0.15 0.17 0.18 0.15 0.21 0.23 0.27 0.28 0.26 0.24 0.25 0.23 0.22 0.19 0.17 0.18 0.21 0.20 0.17
0.21 0.09 0.03 0.01 0.00 0.00 0.00 0.00 0.00 0.02 0.05 0.06 0.06 0.06 0.06 0.07 0.05 0.04 0.03 0.03 0.03 0.02 0.02 0.06 0.10 0.12 0.13 0.13 0.17 0.26 0.26 0.27 0.26 0.23 0.20 0.21 0.18 0.17 0.17 0.15 0.16 0.12 0.11 0.13
0.12 0.06 0.04 0.02 0.02 0.02 0.03 0.03 0.02 0.03 0.02 0.02 0.01 0.01 0.01 0.01 0.00 0.00 0.01 0.02 0.02 0.01 0.00 0.01 0.01 0.01 0.02 0.04 0.08 0.11 0.12 0.12 0.13 0.14 0.12 0.11 0.08 0.08 0.08 0.08 0.08 0.09 0.11 0.08
0.09 0.08 0.06 0.05 0.04 0.03 0.04 0.06 0.06 0.10 0.07 0.04 0.04 0.05 0.03 0.01 0.00 0.00 0.01 0.03 0.03 0.05 0.05 0.06 0.04 0.02 0.01 0.01 0.01 0.01 0.01 0.03 0.07 0.08 0.08 0.08 0.07 0.07 0.07 0.06 0.06 0.07 0.09 0.10
0.01 0.01 0.01 0.01 0.01 0.01 0.00 0.00 0.01 0.01 0.01 0.01 0.02 0.03 0.02 0.01 0.01 0.01 0.02 0.02 0.03 0.05 0.10 0.12 0.11 0.08 0.06 0.05 0.04 0.02 0.02 0.01 0.03 0.06 0.07 0.07 0.07 0.06 0.06 0.05 0.05 0.06 0.07 0.10

GFSNGP_prec_precacc_126.txt.gz
Total_Precipitation_Accumulation
0.43 0.17 0.67 0.68 0.52 0.76 1.52 0.99 1.09 0.39 0.20 0.04 0.04 0.05 0.02 0.01 0.03 0.06 0.04 0.01 0.01 0.00 0.01 0.00 0.01 0.02 0.02 0.04 0.06 0.11 0.17 0.18 0.17 0.24 0.27 0.27 0.30 0.30 0.31 0.31 0.37 0.44 0.56 0.58
0.83 0.36 0.36 0.62 0.61 0.81 0.83 0.77 0.84 0.30 0.23 0.04 0.01 0.01 0.02 0.11 0.15 0.08 0.05 0.02 0.00 0.00 0.00 0.01 0.01 0.00 0.00 0.03 0.06 0.07 0.09 0.07 0.05 0.05 0.06 0.06 0.12 0.26 0.20 0.29 0.33 0.39 0.51 0.44
0.71 0.48 0.70 1.12 0.77 0.59 0.38 0.37 0.49 0.47 0.13 0.07 0.11 0.06 0.17 0.16 0.09 0.10 0.06 0.01 0.00 0.00 0.00 0.00 0.00 0.00 0.01 0.03 0.02 0.03 0.06 0.06 0.04 0.05 0.09 0.04 0.07 0.15 0.34 0.41 0.36 0.45 0.71 0.90
0.75 0.73 1.02 0.63 0.51 0.35 0.36 0.36 0.32 0.16 0.04 0.07 0.12 0.11 0.26 0.06 0.07 0.05 0.02 0.00 0.00 0.00 0.00 0.00 0.00 0.00 0.01 0.12 0.06 0.33 0.14 0.29 0.37 0.34 0.30 0.25 0.27 0.38 0.36 0.36 0.34 0.41 0.56 0.82
0.46 0.38 0.25 0.02 0.05 0.17 0.23 0.37 0.20 0.06 0.02 0.04 0.03 0.15 0.30 0.06 0.04 0.03 0.01 0.00 0.00 0.00 0.00 0.00 0.00 0.00 0.01 0.00 0.01 0.06 0.21 0.40 0.28 0.42 0.30 0.33 0.60 0.68 0.92 1.15 1.01 0.73 0.54 0.43
0.40 0.36 0.09 0.00 0.00 0.00 0.03 0.21 0.30 0.17 0.09 0.06 0.04 0.15 0.34 0.28 0.18 0.08 0.00 0.00 0.00 0.00 0.00 0.01 0.01 0.03 0.02 0.04 0.05 0.08 0.16 0.29 0.34 0.46 0.70 0.71 0.87 0.74 0.55 0.57 0.62 0.50 0.32 0.19
0.35 0.37 0.03 0.00 0.00 0.00 0.04 0.12 0.11 0.16 0.16 0.07 0.05 0.09 0.38 0.51 0.38 0.19 0.09 0.06 0.06 0.06 0.07 0.10 0.18 0.19 0.16 0.29 0.38 0.45 0.58 0.88 0.67 0.67 0.84 0.73 0.59 0.50 0.32 0.18 0.13 0.09 0.05 0.02
0.22 0.27 0.04 0.00 0.00 0.01 0.01 0.00 0.00 0.05 0.14 0.16 0.14 0.06 0.09 0.23 0.25 0.26 0.26 0.29 0.32 0.23 0.34 0.46 0.74 0.62 0.51 0.60 0.67 0.67 0.50 0.43 0.43 0.32 0.24 0.18 0.08 0.04 0.01 0.00 0.00 0.00 0.00 0.00
0.08 0.05 0.01 0.01 0.00 0.00 0.00 0.00 0.00 0.01 0.11 0.17 0.21 0.12 0.05 0.06 0.07 0.04 0.04 0.13 0.18 0.25 0.41 0.42 0.51 0.38 0.39 0.25 0.25 0.25 0.14 0.10 0.08 0.05 0.01 0.00 0.00 0.00 0.00 0.00 0.00 0.00 0.00 0.00
0.00 0.01 0.04 0.16 0.17 0.08 0.04 0.01 0.00 0.00 0.00 0.00 0.06 0.11 0.01 0.01 0.01 0.02 0.02 0.02 0.01 0.01 0.01 0.04 0.03 0.03 0.03 0.02 0.03 0.03 0.01 0.00 0.00 0.00 0.00 0.00 0.00 0.00 0.00 0.00 0.00 0.00 0.00 0.00
0.00 0.00 0.00 0.00 0.02 0.05 0.07 0.07 0.05 0.03 0.01 0.00 0.01 0.02 0.02 0.03 0.01 0.00 0.00 0.00 0.00 0.00 0.00 0.01 0.00 0.00 0.00 0.00 0.00 0.00 0.00 0.00 0.00 0.00 0.00 0.00 0.00 0.00 0.00 0.01 0.01 0.01 0.01 0.01
0.01 0.01 0.00 0.00 0.00 0.00 0.00 0.01 0.03 0.03 0.01 0.01 0.01 0.05 0.05 0.03 0.01 0.01 0.00 0.00 0.01 0.01 0.01 0.02 0.02 0.01 0.00 0.00 0.00 0.00 0.00 0.00 0.00 0.00 0.00 0.00 0.00 0.01 0.03 0.07 0.08 0.08 0.07 0.07
0.00 0.00 0.00 0.00 0.00 0.00 0.00 0.00 0.00 0.01 0.02 0.01 0.00 0.03 0.05 0.03 0.03 0.02 0.00 0.01 0.02 0.01 0.00 0.01 0.04 0.08 0.09 0.07 0.05 0.06 0.08 0.10 0.10 0.11 0.09 0.07 0.05 0.04 0.02 0.07 0.11 0.12 0.13 0.15
0.00 0.00 0.01 0.00 0.00 0.00 0.01 0.01 0.01 0.02 0.02 0.01 0.01 0.02 0.04 0.06 0.15 0.11 0.08 0.08 0.05 0.01 0.00 0.00 0.00 0.00 0.01 0.02 0.04 0.05 0.07 0.11 0.12 0.16 0.20 0.24 0.27 0.25 0.23 0.19 0.15 0.16 0.24 0.23
0.00 0.00 0.00 0.00 0.00 0.00 0.01 0.02 0.03 0.04 0.03 0.01 0.02 0.02 0.04 0.08 0.19 0.34 0.29 0.21 0.19 0.19 0.14 0.08 0.04 0.02 0.01 0.00 0.00 0.00 0.00 0.00 0.00 0.00 0.01 0.04 0.03 0.07 0.12 0.18 0.21 0.23 0.26 0.37
0.00 0.00 0.00 0.01 0.00 0.00 0.01 0.04 0.07 0.09 0.04 0.02 0.01 0.01 0.01 0.01 0.02 0.05 0.05 0.06 0.08 0.09 0.06 0.04 0.04 0.04 0.03 0.03 0.01 0.00 0.01 0.03 0.03 0.01 0.02 0.03 0.03 0.03 0.03 0.05 0.07 0.12 0.19 0.25
0.00 0.01 0.01 0.01 0.00 0.00 0.00 0.03 0.07 0.16 0.12 0.04 0.02 0.01 0.01 0.01 0.00 0.00 0.02 0.02 0.01 0.02 0.01 0.00 0.00 0.01 0.00 0.00 0.00 0.00 0.00 0.01 0.05 0.01 0.02 0.02 0.03 0.03 0.03 0.07 0.08 0.08 0.10 0.30
0.00 0.00 0.00 0.00 0.01 0.01 0.02 0.03 0.04 0.07 0.15 0.21 0.18 0.09 0.05 0.04 0.06 0.09 0.09 0.08 0.07 0.05 0.02 0.01 0.02 0.01 0.00 0.00 0.00 0.00 0.00 0.00 0.01 0.01 0.02 0.03 0.06 0.08 0.14 0.16 0.14 0.13 0.11 0.28
0.01 0.03 0.02 0.03 0.07 0.10 0.10 0.09 0.10 0.10 0.10 0.11 0.16 0.21 0.18 0.13 0.11 0.11 0.13 0.13 0.11 0.09 0.07 0.05 0.09 0.06 0.01 0.02 0.04 0.01 0.01 0.00 0.01 0.02 0.02 0.08 0.15 0.14 0.15 0.18 0.18 0.18 0.19 0.22
0.19 0.16 0.11 0.13 0.19 0.24 0.24 0.27 0.27 0.27 0.25 0.21 0.18 0.17 0.16 0.12 0.09 0.09 0.09 0.10 0.10 0.08 0.08 0.07 0.09 0.04 0.02 0.04 0.08 0.02 0.01 0.01 0.03 0.05 0.13 0.19 0.19 0.21 0.23 0.29 0.28 0.24 0.23 0.22
0.23 0.27 0.27 0.29 0.40 0.34 0.28 0.23 0.15 0.10 0.06 0.04 0.05 0.05 0.03 0.02 0.01 0.01 0.02 0.03 0.04 0.05 0.07 0.07 0.08 0.07 0.09 0.14 0.16 0.06 0.06 0.07 0.13 0.19 0.27 0.34 0.35 0.32 0.27 0.24 0.27 0.29 0.29 0.30
0.08 0.10 0.14 0.18 0.22 0.19 0.11 0.11 0.11 0.11 0.07 0.04 0.03 0.03 0.04 0.03 0.02 0.01 0.02 0.02 0.02 0.07 0.04 0.06 0.09 0.14 0.18 0.27 0.23 0.19 0.22 0.30 0.33 0.35 0.35 0.34 0.34 0.30 0.27 0.26 0.26 0.24 0.28 0.28
0.12 0.05 0.02 0.01 0.00 0.02 0.07 0.09 0.11 0.15 0.14 0.11 0.07 0.05 0.04 0.04 0.04 0.04 0.05 0.04 0.04 0.06 0.06 0.07 0.11 0.15 0.17 0.18 0.15 0.21 0.23 0.27 0.28 0.26 0.24 0.25 0.23 0.22 0.20 0.18 0.19 0.21 0.20 0.17
0.21 0.09 0.03 0.01 0.00 0.00 0.00 0.00 0.00 0.02 0.05 0.06 0.06 0.06 0.06 0.07 0.05 0.04 0.03 0.03 0.03 0.02 0.02 0.06 0.10 0.12 0.13 0.13 0.17 0.26 0.26 0.27 0.26 0.23 0.20 0.21 0.18 0.17 0.18 0.16 0.16 0.12 0.12 0.13
0.12 0.06 0.04 0.02 0.02 0.02 0.03 0.03 0.02 0.03 0.02 0.02 0.01 0.01 0.01 0.01 0.00 0.00 0.01 0.02 0.02 0.01 0.00 0.01 0.01 0.01 0.02 0.04 0.08 0.11 0.12 0.12 0.13 0.14 0.12 0.11 0.09 0.08 0.08 0.08 0.08 0.09 0.12 0.09
0.09 0.08 0.06 0.05 0.04 0.03 0.04 0.06 0.06 0.10 0.07 0.04 0.04 0.05 0.03 0.01 0.00 0.00 0.01 0.03 0.03 0.05 0.05 0.06 0.04 0.02 0.01 0.01 0.01 0.01 0.01 0.03 0.07 0.08 0.08 0.08 0.07 0.08 0.07 0.06 0.06 0.07 0.10 0.10
0.01 0.01 0.01 0.01 0.01 0.01 0.00 0.00 0.01 0.01 0.01 0.01 0.02 0.03 0.02 0.01 0.01 0.01 0.02 0.02 0.03 0.05 0.10 0.12 0.11 0.08 0.06 0.05 0.04 0.02 0.02 0.01 0.03 0.06 0.07 0.07 0.07 0.06 0.06 0.05 0.06 0.06 0.07 0.11

GFSNGP_prec_precacc_129.txt.gz
Total_Precipitation_Accumulation
0.43 0.17 0.67 0.68 0.52 0.76 1.52 0.99 1.09 0.39 0.20 0.04 0.04 0.05 0.02 0.01 0.03 0.06 0.04 0.01 0.01 0.00 0.01 0.00 0.01 0.02 0.02 0.04 0.06 0.12 0.18 0.18 0.19 0.28 0.28 0.29 0.33 0.33 0.36 0.38 0.41 0.46 0.58 0.60
0.83 0.36 0.36 0.62 0.61 0.81 0.83 0.77 0.84 0.30 0.23 0.04 0.01 0.01 0.02 0.11 0.15 0.08 0.05 0.02 0.00 0.00 0.00 0.01 0.01 0.00 0.00 0.03 0.06 0.07 0.09 0.07 0.05 0.05 0.06 0.06 0.12 0.26 0.20 0.29 0.33 0.39 0.51 0.45
0.71 0.48 0.70 1.12 0.77 0.59 0.38 0.37 0.49 0.47 0.13 0.07 0.11 0.06 0.17 0.16 0.09 0.10 0.06 0.01 0.00 0.00 0.00 0.00 0.00 0.00 0.01 0.03 0.02 0.03 0.06 0.06 0.04 0.05 0.09 0.04 0.07 0.15 0.34 0.41 0.36 0.45 0.71 0.90
0.75 0.73 1.02 0.63 0.51 0.35 0.36 0.36 0.32 0.16 0.04 0.07 0.12 0.11 0.26 0.06 0.07 0.05 0.02 0.00 0.00 0.00 0.00 0.00 0.00 0.00 0.01 0.12 0.06 0.33 0.14 0.29 0.37 0.34 0.30 0.25 0.27 0.38 0.36 0.36 0.34 0.41 0.56 0.82
0.46 0.38 0.25 0.02 0.05 0.17 0.23 0.37 0.20 0.06 0.02 0.04 0.03 0.15 0.30 0.06 0.04 0.03 0.01 0.00 0.00 0.00 0.00 0.00 0.00 0.00 0.01 0.00 0.01 0.06 0.21 0.40 0.28 0.42 0.30 0.33 0.60 0.68 0.92 1.15 1.01 0.73 0.54 0.43
0.40 0.36 0.09 0.00 0.00 0.00 0.03 0.21 0.30 0.17 0.09 0.06 0.04 0.15 0.34 0.28 0.18 0.08 0.00 0.00 0.00 0.00 0.00 0.01 0.01 0.03 0.02 0.04 0.05 0.08 0.16 0.29 0.34 0.46 0.70 0.71 0.87 0.74 0.55 0.57 0.62 0.50 0.32 0.19
0.35 0.37 0.03 0.00 0.00 0.00 0.04 0.12 0.11 0.16 0.16 0.07 0.05 0.09 0.38 0.51 0.38 0.19 0.09 0.06 0.06 0.06 0.07 0.10 0.18 0.19 0.16 0.29 0.38 0.45 0.58 0.88 0.67 0.67 0.84 0.73 0.59 0.50 0.32 0.18 0.13 0.09 0.05 0.02
0.22 0.27 0.04 0.00 0.00 0.01 0.01 0.00 0.00 0.05 0.14 0.16 0.14 0.06 0.09 0.23 0.25 0.26 0.26 0.29 0.32 0.23 0.34 0.46 0.74 0.62 0.51 0.60 0.67 0.67 0.50 0.43 0.43 0.32 0.24 0.18 0.08 0.04 0.01 0.00 0.00 0.00 0.00 0.00
0.08 0.05 0.01 0.01 0.00 0.00 0.00 0.00 0.00 0.01 0.11 0.17 0.21 0.12 0.05 0.06 0.07 0.04 0.04 0.13 0.18 0.25 0.41 0.42 0.51 0.38 0.39 0.25 0.25 0.25 0.14 0.10 0.08 0.05 0.01 0.00 0.00 0.00 0.00 0.00 0.00 0.00 0.00 0.00
0.00 0.01 0.04 0.16 0.17 0.08 0.04 0.01 0.00 0.00 0.00 0.00 0.06 0.11 0.01 0.01 0.01 0.02 0.02 0.02 0.01 0.01 0.01 0.04 0.03 0.03 0.03 0.02 0.03 0.03 0.01 0.00 0.00 0.00 0.00 0.00 0.00 0.00 0.00 0.00 0.00 0.00 0.00 0.00
0.00 0.00 0.00 0.00 0.02 0.05 0.07 0.07 0.05 0.03 0.01 0.00 0.01 0.02 0.02 0.03 0.01 0.00 0.00 0.00 0.00 0.00 0.00 0.01 0.00 0.00 0.00 0.00 0.00 0.00 0.00 0.00 0.00 0.00 0.00 0.00 0.00 0.00 0.00 0.01 0.01 0.01 0.01 0.01
0.01 0.01 0.00 0.00 0.00 0.00 0.00 0.01 0.03 0.03 0.01 0.01 0.01 0.05 0.05 0.03 0.01 0.01 0.00 0.00 0.01 0.01 0.01 0.02 0.02 0.01 0.00 0.00 0.00 0.00 0.00 0.00 0.00 0.00 0.00 0.00 0.00 0.01 0.03 0.07 0.08 0.08 0.07 0.07
0.00 0.00 0.00 0.00 0.00 0.00 0.00 0.00 0.00 0.01 0.02 0.01 0.00 0.03 0.05 0.03 0.03 0.02 0.00 0.01 0.02 0.01 0.00 0.01 0.04 0.08 0.09 0.07 0.05 0.06 0.08 0.10 0.10 0.11 0.09 0.07 0.05 0.04 0.02 0.07 0.11 0.12 0.13 0.16
0.00 0.00 0.01 0.00 0.00 0.00 0.01 0.01 0.01 0.02 0.02 0.01 0.01 0.02 0.04 0.06 0.15 0.11 0.08 0.08 0.05 0.01 0.00 0.00 0.00 0.00 0.01 0.02 0.04 0.05 0.07 0.11 0.12 0.16 0.20 0.24 0.27 0.25 0.23 0.19 0.15 0.16 0.24 0.24
0.00 0.00 0.00 0.00 0.00 0.00 0.01 0.02 0.03 0.04 0.03 0.01 0.02 0.02 0.04 0.08 0.19 0.34 0.29 0.21 0.19 0.19 0.14 0.08 0.04 0.02 0.01 0.00 0.00 0.00 0.00 0.00 0.00 0.00 0.01 0.04 0.03 0.07 0.12 0.18 0.21 0.23 0.26 0.37
0.00 0.00 0.00 0.01 0.00 0.00 0.01 0.04 0.07 0.09 0.04 0.02 0.01 0.01 0.01 0.01 0.02 0.05 0.05 0.06 0.08 0.09 0.06 0.04 0.04 0.04 0.03 0.03 0.01 0.00 0.01 0.03 0.03 0.01 0.02 0.03 0.03 0.03 0.03 0.05 0.07 0.12 0.19 0.25
0.00 0.01 0.01 0.01 0.00 0.00 0.00 0.03 0.07 0.16 0.12 0.04 0.02 0.01 0.01 0.01 0.00 0.00 0.02 0.02 0.01 0.02 0.01 0.00 0.00 0.01 0.00 0.00 0.00 0.00 0.00 0.01 0.05 0.01 0.02 0.02 0.03 0.03 0.03 0.07 0.08 0.08 0.10 0.30
0.00 0.00 0.00 0.00 0.01 0.01 0.02 0.03 0.04 0.07 0.15 0.21 0.18 0.09 0.05 0.04 0.06 0.09 0.09 0.08 0.07 0.05 0.02 0.01 0.02 0.01 0.00 0.00 0.00 0.00 0.00 0.00 0.01 0.01 0.02 0.03 0.06 0.08 0.14 0.16 0.14 0.13 0.11 0.28
0.01 0.03 0.02 0.03 0.07 0.10 0.10 0.09 0.10 0.10 0.10 0.11 0.16 0.21 0.18 0.13 0.11 0.11 0.13 0.13 0.11 0.09 0.07 0.05 0.09 0.06 0.01 0.02 0.04 0.01 0.01 0.00 0.01 0.02 0.02 0.08 0.15 0.14 0.15 0.18 0.18 0.18 0.19 0.22
0.19 0.16 0.11 0.13 0.19 0.24 0.24 0.27 0.27 0.27 0.25 0.21 0.18 0.17 0.16 0.12 0.09 0.09 0.09 0.10 0.10 0.08 0.08 0.07 0.09 0.04 0.02 0.04 0.08 0.02 0.01 0.01 0.03 0.05 0.13 0.19 0.19 0.21 0.23 0.29 0.28 0.24 0.23 0.22
0.23 0.27 0.27 0.29 0.40 0.34 0.28 0.23 0.15 0.10 0.06 0.04 0.05 0.05 0.03 0.02 0.01 0.01 0.02 0.03 0.04 0.05 0.07 0.07 0.08 0.07 0.09 0.14 0.16 0.06 0.06 0.07 0.13 0.19 0.27 0.34 0.35 0.32 0.27 0.24 0.27 0.29 0.29 0.30
0.08 0.10 0.14 0.18 0.22 0.19 0.11 0.11 0.11 0.11 0.07 0.04 0.03 0.03 0.04 0.03 0.02 0.01 0.02 0.02 0.02 0.07 0.04 0.06 0.09 0.14 0.18 0.27 0.23 0.19 0.22 0.30 0.33 0.35 0.35 0.34 0.34 0.30 0.27 0.26 0.26 0.24 0.28 0.28
0.12 0.05 0.02 0.01 0.00 0.02 0.07 0.09 0.11 0.15 0.14 0.11 0.07 0.05 0.04 0.04 0.04 0.04 0.05 0.04 0.04 0.06 0.06 0.07 0.11 0.15 0.17 0.18 0.15 0.21 0.23 0.27 0.28 0.26 0.24 0.25 0.23 0.22 0.20 0.18 0.19 0.21 0.20 0.18
0.21 0.09 0.03 0.01 0.00 0.00 0.00 0.00 0.00 0.02 0.05 0.06 0.06 0.06 0.06 0.07 0.05 0.04 0.03 0.03 0.03 0.02 0.02 0.06 0.10 0.12 0.13 0.13 0.17 0.26 0.26 0.27 0.26 0.23 0.20 0.21 0.18 0.17 0.18 0.16 0.16 0.12 0.12 0.13
0.12 0.06 0.04 0.02 0.02 0.02 0.03 0.03 0.02 0.03 0.02 0.02 0.01 0.01 0.01 0.01 0.00 0.00 0.01 0.02 0.02 0.01 0.00 0.01 0.01 0.01 0.02 0.04 0.08 0.11 0.12 0.12 0.13 0.14 0.12 0.11 0.09 0.08 0.08 0.08 0.09 0.09 0.12 0.09
0.09 0.08 0.06 0.05 0.04 0.03 0.04 0.06 0.06 0.10 0.07 0.04 0.04 0.05 0.03 0.01 0.00 0.00 0.01 0.03 0.03 0.05 0.05 0.06 0.04 0.02 0.01 0.01 0.01 0.01 0.01 0.03 0.07 0.08 0.08 0.08 0.07 0.08 0.07 0.06 0.06 0.07 0.10 0.11
0.01 0.01 0.01 0.01 0.01 0.01 0.00 0.00 0.01 0.01 0.01 0.01 0.02 0.03 0.02 0.01 0.01 0.01 0.02 0.02 0.03 0.05 0.10 0.13 0.11 0.08 0.06 0.05 0.04 0.02 0.02 0.01 0.03 0.06 0.07 0.07 0.07 0.06 0.06 0.05 0.06 0.06 0.08 0.11

GFSNGP_prec_precacc_132.txt.gz
Total_Precipitation_Accumulation
0.43 0.17 0.67 0.68 0.52 0.76 1.52 0.99 1.09 0.39 0.20 0.04 0.04 0.05 0.02 0.01 0.03 0.06 0.04 0.01 0.01 0.00 0.01 0.00 0.01 0.02 0.02 0.04 0.06 0.12 0.18 0.19 0.24 0.31 0.29 0.30 0.37 0.41 0.43 0.47 0.50 0.53 0.62 0.61
0.83 0.36 0.36 0.62 0.61 0.81 0.83 0.77 0.84 0.30 0.23 0.04 0.01 0.01 0.02 0.11 0.15 0.08 0.05 0.02 0.00 0.00 0.00 0.01 0.01 0.00 0.00 0.03 0.06 0.07 0.09 0.07 0.05 0.05 0.06 0.06 0.13 0.27 0.22 0.31 0.35 0.40 0.51 0.45
0.71 0.48 0.70 1.12 0.77 0.59 0.38 0.37 0.49 0.47 0.13 0.07 0.11 0.06 0.17 0.16 0.09 0.10 0.06 0.01 0.00 0.00 0.00 0.00 0.00 0.00 0.01 0.03 0.02 0.03 0.06 0.06 0.04 0.05 0.09 0.04 0.07 0.15 0.34 0.41 0.36 0.45 0.71 0.90
0.75 0.73 1.02 0.63 0.51 0.35 0.36 0.36 0.32 0.16 0.04 0.07 0.12 0.11 0.26 0.06 0.07 0.05 0.02 0.00 0.00 0.00 0.00 0.00 0.00 0.00 0.01 0.12 0.06 0.33 0.14 0.29 0.37 0.34 0.30 0.25 0.27 0.38 0.36 0.36 0.34 0.41 0.56 0.82
0.46 0.38 0.25 0.02 0.05 0.17 0.23 0.37 0.20 0.06 0.02 0.04 0.03 0.15 0.30 0.06 0.04 0.03 0.01 0.00 0.00 0.00 0.00 0.00 0.00 0.00 0.01 0.00 0.01 0.06 0.21 0.40 0.28 0.42 0.30 0.33 0.60 0.68 0.92 1.15 1.01 0.73 0.54 0.43
0.40 0.36 0.09 0.00 0.00 0.00 0.03 0.21 0.30 0.17 0.09 0.06 0.04 0.15 0.34 0.28 0.18 0.08 0.00 0.00 0.00 0.00 0.00 0.01 0.01 0.03 0.02 0.04 0.05 0.08 0.16 0.29 0.34 0.46 0.70 0.71 0.87 0.74 0.55 0.57 0.62 0.50 0.32 0.19
0.35 0.37 0.03 0.00 0.00 0.00 0.04 0.12 0.11 0.16 0.16 0.07 0.05 0.09 0.38 0.51 0.38 0.19 0.09 0.06 0.06 0.06 0.07 0.10 0.18 0.19 0.16 0.29 0.38 0.45 0.58 0.88 0.67 0.67 0.84 0.73 0.59 0.50 0.32 0.18 0.13 0.09 0.05 0.02
0.22 0.27 0.04 0.00 0.00 0.01 0.01 0.00 0.00 0.05 0.14 0.16 0.14 0.06 0.09 0.23 0.25 0.26 0.26 0.29 0.32 0.23 0.34 0.46 0.74 0.62 0.51 0.60 0.67 0.67 0.50 0.43 0.43 0.32 0.24 0.18 0.08 0.04 0.01 0.00 0.00 0.00 0.00 0.00
0.08 0.05 0.01 0.01 0.00 0.00 0.00 0.00 0.00 0.01 0.11 0.17 0.21 0.12 0.05 0.06 0.07 0.04 0.04 0.13 0.18 0.25 0.41 0.42 0.51 0.38 0.39 0.25 0.25 0.25 0.14 0.10 0.08 0.05 0.01 0.00 0.00 0.00 0.00 0.00 0.00 0.00 0.00 0.00
0.00 0.01 0.04 0.16 0.17 0.08 0.04 0.01 0.00 0.00 0.00 0.00 0.06 0.11 0.01 0.01 0.01 0.02 0.02 0.02 0.01 0.01 0.01 0.04 0.03 0.03 0.03 0.02 0.03 0.03 0.01 0.00 0.00 0.00 0.00 0.00 0.00 0.00 0.00 0.00 0.00 0.00 0.00 0.00
0.00 0.00 0.00 0.00 0.02 0.05 0.07 0.07 0.05 0.03 0.01 0.00 0.01 0.02 0.02 0.03 0.01 0.00 0.00 0.00 0.00 0.00 0.00 0.01 0.00 0.00 0.00 0.00 0.00 0.00 0.00 0.00 0.00 0.00 0.00 0.00 0.00 0.00 0.00 0.01 0.01 0.01 0.01 0.01
0.01 0.01 0.00 0.00 0.00 0.00 0.00 0.01 0.03 0.03 0.01 0.01 0.01 0.05 0.05 0.03 0.01 0.01 0.00 0.00 0.01 0.01 0.01 0.02 0.02 0.01 0.00 0.00 0.00 0.00 0.00 0.00 0.00 0.00 0.00 0.00 0.00 0.01 0.03 0.07 0.08 0.08 0.07 0.07
0.00 0.00 0.00 0.00 0.00 0.00 0.00 0.00 0.00 0.01 0.02 0.01 0.00 0.03 0.05 0.03 0.03 0.02 0.00 0.01 0.02 0.01 0.00 0.01 0.04 0.08 0.09 0.07 0.05 0.06 0.08 0.10 0.10 0.11 0.09 0.07 0.05 0.04 0.02 0.07 0.11 0.12 0.13 0.16
0.00 0.00 0.01 0.00 0.00 0.00 0.01 0.01 0.01 0.02 0.02 0.01 0.01 0.02 0.04 0.06 0.15 0.11 0.08 0.08 0.05 0.01 0.00 0.00 0.00 0.00 0.01 0.02 0.04 0.05 0.07 0.11 0.12 0.16 0.20 0.24 0.27 0.25 0.23 0.19 0.15 0.16 0.24 0.24
0.00 0.00 0.00 0.00 0.00 0.00 0.01 0.02 0.03 0.04 0.03 0.01 0.02 0.02 0.04 0.08 0.19 0.34 0.29 0.21 0.19 0.19 0.14 0.08 0.04 0.02 0.01 0.00 0.00 0.00 0.00 0.00 0.00 0.00 0.01 0.04 0.03 0.07 0.12 0.18 0.21 0.23 0.26 0.37
0.00 0.00 0.00 0.01 0.00 0.00 0.01 0.04 0.07 0.09 0.04 0.02 0.01 0.01 0.01 0.01 0.02 0.05 0.05 0.06 0.08 0.09 0.06 0.04 0.04 0.04 0.03 0.03 0.01 0.00 0.01 0.03 0.03 0.01 0.02 0.03 0.03 0.03 0.03 0.05 0.07 0.12 0.19 0.25
0.00 0.01 0.01 0.01 0.00 0.00 0.00 0.03 0.07 0.16 0.12 0.04 0.02 0.01 0.01 0.01 0.00 0.00 0.02 0.02 0.01 0.02 0.01 0.00 0.00 0.01 0.00 0.00 0.00 0.00 0.00 0.02 0.05 0.01 0.02 0.02 0.03 0.03 0.03 0.07 0.08 0.08 0.10 0.30
0.00 0.00 0.00 0.00 0.01 0.01 0.02 0.03 0.04 0.07 0.15 0.21 0.18 0.09 0.05 0.04 0.06 0.09 0.09 0.08 0.07 0.05 0.02 0.01 0.02 0.01 0.00 0.00 0.00 0.00 0.00 0.00 0.01 0.01 0.02 0.03 0.06 0.08 0.14 0.16 0.14 0.13 0.11 0.28
0.01 0.03 0.02 0.03 0.07 0.10 0.10 0.09 0.10 0.10 0.10 0.11 0.16 0.21 0.18 0.13 0.11 0.11 0.13 0.13 0.11 0.09 0.07 0.05 0.09 0.06 0.01 0.02 0.04 0.01 0.01 0.00 0.01 0.02 0.02 0.08 0.15 0.14 0.15 0.18 0.18 0.18 0.19 0.22
0.19 0.16 0.11 0.13 0.19 0.24 0.24 0.27 0.27 0.27 0.25 0.21 0.18 0.17 0.16 0.12 0.09 0.09 0.09 0.10 0.10 0.08 0.08 0.07 0.09 0.04 0.02 0.04 0.08 0.02 0.01 0.01 0.03 0.05 0.13 0.19 0.19 0.21 0.23 0.29 0.28 0.24 0.23 0.22
0.23 0.27 0.27 0.29 0.40 0.34 0.28 0.23 0.15 0.10 0.06 0.04 0.05 0.05 0.03 0.02 0.01 0.01 0.02 0.03 0.04 0.05 0.07 0.07 0.08 0.07 0.09 0.14 0.16 0.06 0.06 0.07 0.13 0.19 0.27 0.34 0.35 0.32 0.27 0.24 0.27 0.29 0.29 0.30
0.08 0.10 0.14 0.18 0.22 0.19 0.11 0.11 0.11 0.11 0.07 0.04 0.03 0.03 0.04 0.03 0.02 0.01 0.02 0.02 0.02 0.07 0.04 0.06 0.09 0.14 0.18 0.27 0.23 0.19 0.22 0.30 0.33 0.35 0.35 0.34 0.34 0.30 0.27 0.26 0.26 0.24 0.28 0.28
0.12 0.05 0.02 0.01 0.00 0.02 0.07 0.09 0.11 0.15 0.14 0.11 0.07 0.05 0.04 0.04 0.04 0.04 0.05 0.04 0.04 0.06 0.06 0.07 0.11 0.15 0.17 0.18 0.15 0.21 0.23 0.27 0.28 0.26 0.24 0.25 0.23 0.22 0.20 0.18 0.19 0.21 0.20 0.18
0.21 0.09 0.03 0.01 0.00 0.00 0.00 0.00 0.00 0.02 0.05 0.06 0.06 0.06 0.06 0.07 0.05 0.04 0.03 0.03 0.03 0.02 0.02 0.06 0.10 0.12 0.13 0.13 0.17 0.26 0.26 0.27 0.26 0.23 0.20 0.21 0.18 0.17 0.18 0.16 0.16 0.13 0.12 0.13
0.12 0.06 0.04 0.02 0.02 0.02 0.03 0.03 0.02 0.03 0.02 0.02 0.01 0.01 0.01 0.01 0.00 0.00 0.01 0.02 0.02 0.01 0.00 0.01 0.01 0.01 0.02 0.04 0.08 0.11 0.12 0.12 0.13 0.14 0.12 0.11 0.09 0.08 0.08 0.08 0.09 0.09 0.12 0.09
0.09 0.08 0.06 0.05 0.04 0.03 0.04 0.06 0.06 0.10 0.07 0.04 0.04 0.05 0.03 0.01 0.00 0.00 0.01 0.03 0.03 0.05 0.05 0.06 0.04 0.02 0.01 0.01 0.01 0.01 0.01 0.03 0.07 0.08 0.08 0.08 0.07 0.08 0.07 0.06 0.06 0.07 0.10 0.11
0.01 0.01 0.01 0.01 0.01 0.01 0.00 0.00 0.01 0.01 0.01 0.01 0.02 0.03 0.02 0.01 0.01 0.01 0.02 0.02 0.03 0.05 0.10 0.13 0.11 0.08 0.06 0.05 0.04 0.02 0.02 0.01 0.03 0.06 0.07 0.07 0.07 0.06 0.06 0.05 0.06 0.07 0.08 0.12